I-5 : South of SR-46 Atmospheric Data: 06/24/2022 Summary  Detailed Graphs  Station List

  Temperature     Wind Precipitation Visibility
Timestamp Wet
Bulb
Dew-
point
24-hr
Max
24-hr
Min
Relative
Humidity
Atmospheric
Pressure
Avg
Speed
Avg
Dir
Spot
Speed
Spot
Dir
Max
Speed
Max
Dir
  Rate Situation Start End 1 hr 3 hr 6 hr 12 hr 24 hr   Situation
Date Time °F °F °F °F % in Hg mph ° mph ° mph ° Y/N in/hr text Date Time Date Time in in in in in mi text
06/24/2022 12:00 AM 63.68 20.84 104.90 66.74 10.0 x 4.47 NW 3.80 NW 6.49 NW No x No Precipitation 10/20/2013 10:25 AM 10/20/2013 10:25 AM x x x x x 0.02 Unknown
06/24/2022 12:01 AM 63.68 20.84 104.90 66.74 10.0 x 4.70 NW 4.70 NW 6.26 NW No x No Precipitation 10/20/2013 10:25 AM 10/20/2013 10:25 AM x x x x x 0.02 Unknown
06/24/2022 12:02 AM 63.68 20.66 104.90 66.74 10.0 x 4.25 NW 3.80 NW 6.26 NW No x No Precipitation 10/20/2013 10:25 AM 10/20/2013 10:25 AM x x x x x 0.02 Unknown
06/24/2022 12:03 AM 63.68 20.66 104.90 66.74 10.0 x 3.36 NW 1.34 SW 6.26 NW No x No Precipitation 10/20/2013 10:25 AM 10/20/2013 10:25 AM x x x x x 0.02 Unknown
06/24/2022 12:04 AM 63.68 20.66 104.90 66.74 10.0 x 2.46 NW 3.80 W 6.26 NW No x No Precipitation 10/20/2013 10:25 AM 10/20/2013 10:25 AM x x x x x 0.02 Unknown
06/24/2022 12:05 AM 63.68 20.66 104.90 66.74 10.0 x 3.36 NW 3.13 NW 6.26 NW No x No Precipitation 10/20/2013 10:25 AM 10/20/2013 10:25 AM x x x x x 0.02 Unknown
06/24/2022 12:06 AM 63.68 20.66 104.90 66.74 10.0 x 3.80 NW 4.70 NW 6.26 NW No x No Precipitation 10/20/2013 10:25 AM 10/20/2013 10:25 AM x x x x x 0.02 Unknown
06/24/2022 12:07 AM 63.68 20.66 104.90 66.74 10.0 x 4.03 NW 5.82 N 6.49 N No x No Precipitation 10/20/2013 10:25 AM 10/20/2013 10:25 AM x x x x x 0.02 Unknown
06/24/2022 12:08 AM 63.68 20.66 104.90 66.74 10.0 x 4.03 NW 1.79 NW 6.49 NW No x No Precipitation 10/20/2013 10:25 AM 10/20/2013 10:25 AM x x x x x 0.02 Unknown
06/24/2022 12:09 AM 63.68 20.66 104.90 66.74 10.0 x 4.47 NW 4.92 NW 6.49 NW No x No Precipitation 10/20/2013 10:25 AM 10/20/2013 10:25 AM x x x x x 0.02 Unknown
06/24/2022 12:10 AM 63.50 20.48 104.90 66.74 10.0 x 4.25 NW 4.03 NW 6.49 NW No x No Precipitation 10/20/2013 10:25 AM 10/20/2013 10:25 AM x x x x x 0.02 Unknown
06/24/2022 12:11 AM 63.50 20.48 104.90 66.74 10.0 x 4.03 NW 5.37 NW 6.49 NW No x No Precipitation 10/20/2013 10:25 AM 10/20/2013 10:25 AM x x x x x 0.02 Unknown
06/24/2022 12:12 AM 63.50 20.48 104.90 66.74 10.0 x 5.14 NW 7.38 NW 8.05 NW No x No Precipitation 10/20/2013 10:25 AM 10/20/2013 10:25 AM x x x x x 0.02 Unknown
06/24/2022 12:13 AM 63.50 20.48 104.90 66.74 10.0 x 6.04 NW 6.93 NW 8.28 NW No x No Precipitation 10/20/2013 10:25 AM 10/20/2013 10:25 AM x x x x x 0.02 Unknown
06/24/2022 12:14 AM 63.68 20.66 104.90 66.74 10.0 x 6.49 NW 5.82 NW 8.28 NW No x No Precipitation 10/20/2013 10:25 AM 10/20/2013 10:25 AM x x x x x 0.02 Unknown
06/24/2022 12:15 AM 63.68 20.66 104.90 66.74 10.0 x 6.71 NW 7.38 NW 8.28 NW No x No Precipitation 10/20/2013 10:25 AM 10/20/2013 10:25 AM x x x x x 0.02 Unknown
06/24/2022 12:16 AM 63.68 20.66 104.90 66.74 10.0 x 6.71 NW 6.71 NW 8.28 NW No x No Precipitation 10/20/2013 10:25 AM 10/20/2013 10:25 AM x x x x x 0.02 Unknown
06/24/2022 12:17 AM 63.68 20.66 104.90 66.74 10.0 x 6.71 NW 4.92 W 8.28 NW No x No Precipitation 10/20/2013 10:25 AM 10/20/2013 10:25 AM x x x x x 0.02 Unknown
06/24/2022 12:18 AM 63.68 20.66 104.90 66.74 10.0 x 6.71 NW 9.17 W 9.17 NW No x No Precipitation 10/20/2013 10:25 AM 10/20/2013 10:25 AM x x x x x 0.02 Unknown
06/24/2022 12:19 AM 63.68 20.66 104.90 66.74 10.0 x 6.93 NW 7.61 NW 9.17 NW No x No Precipitation 10/20/2013 10:25 AM 10/20/2013 10:25 AM x x x x x 0.02 Unknown
06/24/2022 12:20 AM 63.68 20.66 104.90 66.74 10.0 x 7.38 NW 6.04 NW 9.17 NW No x No Precipitation 10/20/2013 10:25 AM 10/20/2013 10:25 AM x x x x x 0.02 Unknown
06/24/2022 12:21 AM 63.68 20.66 104.90 66.74 10.0 x 6.93 NW 6.71 NW 9.17 NW No x No Precipitation 10/20/2013 10:25 AM 10/20/2013 10:25 AM x x x x x 0.02 Unknown
06/24/2022 12:22 AM 63.68 20.66 104.90 66.74 10.0 x 6.71 NW 7.16 NW 9.17 NW No x No Precipitation 10/20/2013 10:25 AM 10/20/2013 10:25 AM x x x x x 0.02 Unknown
06/24/2022 12:23 AM 63.68 20.66 104.90 66.74 10.0 x 6.71 NW 4.92 NW 9.17 NW No x No Precipitation 10/20/2013 10:25 AM 10/20/2013 10:25 AM x x x x x 0.02 Unknown
06/24/2022 12:24 AM 63.68 20.66 104.90 66.74 10.0 x 6.49 NW 6.04 NW 9.17 NW No x No Precipitation 10/20/2013 10:25 AM 10/20/2013 10:25 AM x x x x x 0.02 Unknown
06/24/2022 12:25 AM 63.68 20.66 104.90 66.74 10.0 x 6.49 NW 6.04 NW 9.17 NW No x No Precipitation 10/20/2013 10:25 AM 10/20/2013 10:25 AM x x x x x 0.02 Unknown
06/24/2022 12:26 AM 63.68 20.66 104.90 66.74 10.0 x 6.49 NW 6.04 NW 9.17 NW No x No Precipitation 10/20/2013 10:25 AM 10/20/2013 10:25 AM x x x x x 0.02 Unknown
06/24/2022 12:27 AM 63.50 20.48 104.90 66.74 10.0 x 6.49 NW 6.93 NW 9.17 NW No x No Precipitation 10/20/2013 10:25 AM 10/20/2013 10:25 AM x x x x x 0.02 Unknown
06/24/2022 12:28 AM 63.50 20.48 104.90 66.74 10.0 x 6.49 NW 7.83 NW 9.17 NW No x No Precipitation 10/20/2013 10:25 AM 10/20/2013 10:25 AM x x x x x 0.02 Unknown
06/24/2022 12:29 AM 63.50 20.48 104.90 66.74 10.0 x 6.49 NW 6.04 NW 8.50 NW No x No Precipitation 10/20/2013 10:25 AM 10/20/2013 10:25 AM x x x x x 0.02 Unknown
06/24/2022 12:30 AM 63.50 20.48 104.90 66.74 10.0 x 6.71 NW 4.92 NW 8.50 NW No x No Precipitation 10/20/2013 10:25 AM 10/20/2013 10:25 AM x x x x x 0.02 Unknown
06/24/2022 12:31 AM 63.50 20.48 104.90 66.74 10.0 x 6.49 NW 6.04 NW 8.50 NW No x No Precipitation 10/20/2013 10:25 AM 10/20/2013 10:25 AM x x x x x 0.02 Unknown
06/24/2022 12:32 AM 63.50 20.48 104.90 66.74 10.0 x 6.49 NW 7.61 NW 8.50 NW No x No Precipitation 10/20/2013 10:25 AM 10/20/2013 10:25 AM x x x x x 0.02 Unknown
06/24/2022 12:33 AM 63.50 20.48 104.90 66.74 10.0 x 6.71 NW 7.38 NW 8.50 NW No x No Precipitation 10/20/2013 10:25 AM 10/20/2013 10:25 AM x x x x x 0.02 Unknown
06/24/2022 12:34 AM 63.50 20.48 104.90 66.74 10.0 x 6.49 NW 4.70 NW 8.50 NW No x No Precipitation 10/20/2013 10:25 AM 10/20/2013 10:25 AM x x x x x 0.02 Unknown
06/24/2022 12:35 AM 63.50 20.48 104.90 66.74 10.0 x 6.49 NW 6.93 NW 8.50 NW No x No Precipitation 10/20/2013 10:25 AM 10/20/2013 10:25 AM x x x x x 0.02 Unknown
06/24/2022 12:36 AM 63.50 20.48 104.90 66.74 10.0 x 6.49 NW 7.16 NW 8.50 NW No x No Precipitation 10/20/2013 10:25 AM 10/20/2013 10:25 AM x x x x x 0.02 Unknown
06/24/2022 12:37 AM 63.50 20.48 104.90 66.74 10.0 x 6.71 NW 6.04 NW 8.50 NW No x No Precipitation 10/20/2013 10:25 AM 10/20/2013 10:25 AM x x x x x 0.02 Unknown
06/24/2022 12:38 AM 63.50 20.48 104.90 66.74 10.0 x 6.71 NW 6.04 NW 8.50 NW No x No Precipitation 10/20/2013 10:25 AM 10/20/2013 10:25 AM x x x x x 0.02 Unknown
06/24/2022 12:39 AM 63.32 20.30 104.90 66.74 10.0 x 6.71 NW 5.59 NW 8.50 NW No x No Precipitation 10/20/2013 10:25 AM 10/20/2013 10:25 AM x x x x x 0.02 Unknown
06/24/2022 12:40 AM 63.32 20.30 104.90 66.74 10.0 x 6.71 NW 5.59 NW 8.50 NW No x No Precipitation 10/20/2013 10:25 AM 10/20/2013 10:25 AM x x x x x 0.02 Unknown
06/24/2022 12:41 AM 63.32 20.12 104.90 66.74 10.0 x 6.49 NW 7.61 NW 8.50 NW No x No Precipitation 10/20/2013 10:25 AM 10/20/2013 10:25 AM x x x x x 0.02 Unknown
06/24/2022 12:42 AM 63.14 20.12 104.90 66.74 10.0 x 6.49 NW 7.83 NW 8.50 NW No x No Precipitation 10/20/2013 10:25 AM 10/20/2013 10:25 AM x x x x x 0.02 Unknown
06/24/2022 12:43 AM 63.14 20.12 104.90 66.74 10.0 x 6.71 NW 6.26 N 8.50 NW No x No Precipitation 10/20/2013 10:25 AM 10/20/2013 10:25 AM x x x x x 0.02 Unknown
06/24/2022 12:44 AM 63.14 19.94 104.90 66.74 10.0 x 6.49 NW 5.59 N 8.05 NW No x No Precipitation 10/20/2013 10:25 AM 10/20/2013 10:25 AM x x x x x 0.02 Unknown
06/24/2022 12:45 AM 63.14 19.94 104.90 66.74 10.0 x 6.49 NW 5.82 NW 8.05 NW No x No Precipitation 10/20/2013 10:25 AM 10/20/2013 10:25 AM x x x x x 0.02 Unknown
06/24/2022 12:46 AM 63.14 19.94 104.90 66.74 10.0 x 6.49 NW 5.37 NW 8.05 NW No x No Precipitation 10/20/2013 10:25 AM 10/20/2013 10:25 AM x x x x x 0.02 Unknown
06/24/2022 12:47 AM 63.14 19.94 104.90 66.74 10.0 x 6.49 NW 7.38 NW 7.83 NW No x No Precipitation 10/20/2013 10:25 AM 10/20/2013 10:25 AM x x x x x 0.02 Unknown
06/24/2022 12:48 AM 63.14 19.94 104.90 66.74 10.0 x 6.26 NW 6.04 NW 7.83 NW No x No Precipitation 10/20/2013 10:25 AM 10/20/2013 10:25 AM x x x x x 0.02 Unknown
06/24/2022 12:49 AM 63.14 19.94 104.90 66.74 10.0 x 6.04 NW 5.14 NW 7.83 NW No x No Precipitation 10/20/2013 10:25 AM 10/20/2013 10:25 AM x x x x x 0.02 Unknown
06/24/2022 12:50 AM 62.96 19.76 104.90 66.74 10.0 x 6.04 NW 5.59 NW 7.83 NW No x No Precipitation 10/20/2013 10:25 AM 10/20/2013 10:25 AM x x x x x 0.02 Unknown
06/24/2022 12:51 AM 62.96 19.76 104.90 66.74 10.0 x 5.37 NW 5.82 NW 7.83 NW No x No Precipitation 10/20/2013 10:25 AM 10/20/2013 10:25 AM x x x x x 0.02 Unknown
06/24/2022 12:52 AM 62.96 19.76 104.90 66.74 10.0 x 5.37 NW 6.26 NW 7.83 NW No x No Precipitation 10/20/2013 10:25 AM 10/20/2013 10:25 AM x x x x x 0.02 Unknown
06/24/2022 12:53 AM 62.96 19.76 104.90 66.74 10.0 x 5.82 NW 5.14 NW 7.83 NW No x No Precipitation 10/20/2013 10:25 AM 10/20/2013 10:25 AM x x x x x 0.02 Unknown
06/24/2022 12:54 AM 62.78 19.76 104.90 66.74 10.0 x 5.37 NW 6.93 NW 7.83 NW No x No Precipitation 10/20/2013 10:25 AM 10/20/2013 10:25 AM x x x x x 0.02 Unknown
06/24/2022 12:55 AM 62.78 19.58 104.90 66.74 10.0 x 5.59 NW 4.70 NW 7.83 NW No x No Precipitation 10/20/2013 10:25 AM 10/20/2013 10:25 AM x x x x x 0.02 Unknown
06/24/2022 12:56 AM 62.78 19.58 104.90 66.74 10.0 x 6.26 NW 6.04 NW 8.05 NW No x No Precipitation 10/20/2013 10:25 AM 10/20/2013 10:25 AM x x x x x 0.02 Unknown
06/24/2022 12:57 AM 62.78 19.40 104.90 66.74 10.0 x 6.49 NW 8.95 NW 8.95 NW No x No Precipitation 10/20/2013 10:25 AM 10/20/2013 10:25 AM x x x x x 0.02 Unknown
06/24/2022 12:58 AM 62.78 19.40 104.90 66.74 10.0 x 6.71 NW 7.16 NW 8.95 NW No x No Precipitation 10/20/2013 10:25 AM 10/20/2013 10:25 AM x x x x x 0.02 Unknown
06/24/2022 12:59 AM 62.78 19.58 104.90 66.74 10.0 x 6.93 NW 6.04 NW 8.95 NW No x No Precipitation 10/20/2013 10:25 AM 10/20/2013 10:25 AM x x x x x 0.02 Unknown
06/24/2022 01:00 AM 62.78 19.58 104.90 66.74 10.0 x 6.71 NW 3.80 NW 8.95 NW No x No Precipitation 10/20/2013 10:25 AM 10/20/2013 10:25 AM x x x x x 0.02 Unknown
06/24/2022 01:01 AM 62.78 19.58 104.90 66.74 10.0 x 6.26 NW 6.49 NW 8.95 NW No x No Precipitation 10/20/2013 10:25 AM 10/20/2013 10:25 AM x x x x x 0.02 Unknown
06/24/2022 01:02 AM 62.78 19.58 104.90 66.74 10.0 x 5.59 NW 5.59 NW 8.95 NW No x No Precipitation 10/20/2013 10:25 AM 10/20/2013 10:25 AM x x x x x 0.02 Unknown
06/24/2022 01:03 AM 62.78 19.58 104.90 66.74 10.0 x 5.59 NW 4.25 W 8.95 NW No x No Precipitation 10/20/2013 10:25 AM 10/20/2013 10:25 AM x x x x x 0.02 Unknown
06/24/2022 01:04 AM 62.78 19.58 104.90 66.74 10.0 x 5.14 NW 6.49 NW 8.95 NW No x No Precipitation 10/20/2013 10:25 AM 10/20/2013 10:25 AM x x x x x 0.02 Unknown
06/24/2022 01:05 AM 62.78 19.40 104.90 66.74 10.0 x 4.92 NW 4.47 NW 8.95 NW No x No Precipitation 10/20/2013 10:25 AM 10/20/2013 10:25 AM x x x x x 0.02 Unknown
06/24/2022 01:06 AM 62.78 19.40 104.90 66.74 10.0 x 5.14 NW 5.14 NW 8.95 NW No x No Precipitation 10/20/2013 10:25 AM 10/20/2013 10:25 AM x x x x x 0.02 Unknown
06/24/2022 01:07 AM 62.60 19.40 104.90 66.74 10.0 x 5.14 NW 5.37 NW 8.95 NW No x No Precipitation 10/20/2013 10:25 AM 10/20/2013 10:25 AM x x x x x 0.02 Unknown
06/24/2022 01:08 AM 62.60 19.40 104.90 66.74 10.0 x 5.37 NW 5.82 NW 8.95 NW No x No Precipitation 10/20/2013 10:25 AM 10/20/2013 10:25 AM x x x x x 0.02 Unknown
06/24/2022 01:09 AM 62.60 19.22 104.90 66.74 10.0 x 5.37 NW 6.26 NW 8.05 NW No x No Precipitation 10/20/2013 10:25 AM 10/20/2013 10:25 AM x x x x x 0.02 Unknown
06/24/2022 01:11 AM 62.42 19.04 104.90 66.74 10.0 x 5.82 NW 5.59 NW 7.16 NW No x No Precipitation 10/20/2013 10:25 AM 10/20/2013 10:25 AM x x x x x 0.02 Unknown
06/24/2022 01:12 AM 62.42 19.04 104.90 66.74 10.0 x 5.59 NW 3.80 NW 7.16 NW No x No Precipitation 10/20/2013 10:25 AM 10/20/2013 10:25 AM x x x x x 0.02 Unknown
06/24/2022 01:13 AM 62.42 19.04 104.90 66.74 10.0 x 4.70 NW 5.14 NW 7.16 NW No x No Precipitation 10/20/2013 10:25 AM 10/20/2013 10:25 AM x x x x x 0.02 Unknown
06/24/2022 01:14 AM 62.42 19.04 104.90 66.74 10.0 x 4.03 NW 4.92 NW 7.16 NW No x No Precipitation 10/20/2013 10:25 AM 10/20/2013 10:25 AM x x x x x 0.02 Unknown
06/24/2022 01:15 AM 62.42 19.04 104.90 66.74 10.0 x 4.47 NW 5.37 NW 7.16 NW No x No Precipitation 10/20/2013 10:25 AM 10/20/2013 10:25 AM x x x x x 0.02 Unknown
06/24/2022 01:16 AM 62.24 18.86 104.90 66.74 10.0 x 4.92 NW 4.25 NW 7.16 NW No x No Precipitation 10/20/2013 10:25 AM 10/20/2013 10:25 AM x x x x x 0.02 Unknown
06/24/2022 01:17 AM 62.24 18.86 104.90 66.74 10.0 x 4.92 NW 4.92 NW 7.16 NW No x No Precipitation 10/20/2013 10:25 AM 10/20/2013 10:25 AM x x x x x 0.02 Unknown
06/24/2022 01:18 AM 62.24 18.68 104.90 66.74 10.0 x 4.70 NW 3.80 N 7.16 NW No x No Precipitation 10/20/2013 10:25 AM 10/20/2013 10:25 AM x x x x x 0.02 Unknown
06/24/2022 01:19 AM 62.24 18.68 104.90 66.74 10.0 x 4.25 NW 5.59 NW 7.16 NW No x No Precipitation 10/20/2013 10:25 AM 10/20/2013 10:25 AM x x x x x 0.02 Unknown
06/24/2022 01:20 AM 62.24 18.68 104.90 66.74 10.0 x 4.47 NW 5.37 NW 6.49 NW No x No Precipitation 10/20/2013 10:25 AM 10/20/2013 10:25 AM x x x x x 0.02 Unknown
06/24/2022 01:21 AM 62.24 18.68 104.90 66.74 10.0 x 5.14 NW 2.24 NW 6.49 NW No x No Precipitation 10/20/2013 10:25 AM 10/20/2013 10:25 AM x x x x x 0.02 Unknown
06/24/2022 01:22 AM 62.24 18.68 104.90 66.74 10.0 x 5.14 NW 5.37 NW 6.71 NW No x No Precipitation 10/20/2013 10:25 AM 10/20/2013 10:25 AM x x x x x 0.02 Unknown
06/24/2022 01:23 AM 62.06 18.50 104.90 66.74 10.0 x 5.37 NW 5.59 NW 6.71 NW No x No Precipitation 10/20/2013 10:25 AM 10/20/2013 10:25 AM x x x x x 0.02 Unknown
06/24/2022 01:24 AM 62.06 18.68 104.90 66.74 10.0 x 5.37 NW 5.14 NW 6.71 NW No x No Precipitation 10/20/2013 10:25 AM 10/20/2013 10:25 AM x x x x x 0.02 Unknown
06/24/2022 01:25 AM 62.06 18.50 104.90 66.74 10.0 x 4.92 NW 5.37 NW 6.71 NW No x No Precipitation 10/20/2013 10:25 AM 10/20/2013 10:25 AM x x x x x 0.02 Unknown
06/24/2022 01:26 AM 62.06 18.50 104.90 66.74 10.0 x 4.70 NW 5.59 NW 6.71 NW No x No Precipitation 10/20/2013 10:25 AM 10/20/2013 10:25 AM x x x x x 0.02 Unknown
06/24/2022 01:27 AM 62.06 18.50 104.90 66.74 10.0 x 4.92 NW 5.14 NW 6.71 NW No x No Precipitation 10/20/2013 10:25 AM 10/20/2013 10:25 AM x x x x x 0.02 Unknown
06/24/2022 01:28 AM 61.88 18.32 104.90 66.74 10.0 x 5.14 NW 5.14 NW 6.71 NW No x No Precipitation 10/20/2013 10:25 AM 10/20/2013 10:25 AM x x x x x 0.02 Unknown
06/24/2022 01:29 AM 61.88 18.32 104.90 66.74 10.0 x 4.92 NW 4.92 N 6.71 NW No x No Precipitation 10/20/2013 10:25 AM 10/20/2013 10:25 AM x x x x x 0.02 Unknown
06/24/2022 01:30 AM 61.88 18.32 104.90 66.74 10.0 x 5.14 NW 5.37 NW 6.71 N No x No Precipitation 10/20/2013 10:25 AM 10/20/2013 10:25 AM x x x x x 0.02 Unknown
06/24/2022 01:31 AM 61.88 18.32 104.90 66.74 10.0 x 5.14 NW 2.91 NW 6.71 N No x No Precipitation 10/20/2013 10:25 AM 10/20/2013 10:25 AM x x x x x 0.02 Unknown
06/24/2022 01:32 AM 61.88 18.32 104.90 66.74 10.0 x 4.47 NW 4.70 N 6.71 N No x No Precipitation 10/20/2013 10:25 AM 10/20/2013 10:25 AM x x x x x 0.02 Unknown
06/24/2022 01:33 AM 62.06 18.50 104.90 66.74 10.0 x 4.70 NW 3.36 N 6.71 N No x No Precipitation 10/20/2013 10:25 AM 10/20/2013 10:25 AM x x x x x 0.02 Unknown
06/24/2022 01:34 AM 62.06 18.50 104.90 66.74 10.0 x 4.92 NW 4.70 N 6.71 N No x No Precipitation 10/20/2013 10:25 AM 10/20/2013 10:25 AM x x x x x 0.02 Unknown
06/24/2022 01:35 AM 61.88 18.32 104.90 66.74 10.0 x 4.92 NW 5.82 NW 6.71 N No x No Precipitation 10/20/2013 10:25 AM 10/20/2013 10:25 AM x x x x x 0.02 Unknown
06/24/2022 01:36 AM 61.88 18.32 104.90 66.74 10.0 x 5.14 NW 4.92 NW 6.71 N No x No Precipitation 10/20/2013 10:25 AM 10/20/2013 10:25 AM x x x x x 0.02 Unknown
06/24/2022 01:37 AM 61.88 18.32 104.90 66.74 10.0 x 4.70 NW 4.03 N 6.71 N No x No Precipitation 10/20/2013 10:25 AM 10/20/2013 10:25 AM x x x x x 0.02 Unknown
06/24/2022 01:38 AM 61.88 18.14 104.90 66.74 10.0 x 4.03 NW 4.25 NW 6.71 N No x No Precipitation 10/20/2013 10:25 AM 10/20/2013 10:25 AM x x x x x 0.02 Unknown
06/24/2022 01:39 AM 61.88 18.14 104.90 66.74 10.0 x 4.03 NW 2.01 W 6.49 NW No x No Precipitation 10/20/2013 10:25 AM 10/20/2013 10:25 AM x x x x x 0.02 Unknown
06/24/2022 01:40 AM 61.88 18.14 104.90 66.74 10.0 x 4.25 NW 4.92 NW 6.49 NW No x No Precipitation 10/20/2013 10:25 AM 10/20/2013 10:25 AM x x x x x 0.02 Unknown
06/24/2022 01:41 AM 61.70 18.14 104.90 66.74 10.0 x 4.25 NW 4.70 NW 6.49 NW No x No Precipitation 10/20/2013 10:25 AM 10/20/2013 10:25 AM x x x x x 0.02 Unknown
06/24/2022 01:42 AM 61.70 18.14 104.90 66.74 10.0 x 4.25 NW 4.70 N 6.49 NW No x No Precipitation 10/20/2013 10:25 AM 10/20/2013 10:25 AM x x x x x 0.02 Unknown
06/24/2022 01:43 AM 61.70 18.14 104.90 66.74 10.0 x 4.03 N 4.47 NW 6.49 NW No x No Precipitation 10/20/2013 10:25 AM 10/20/2013 10:25 AM x x x x x 0.02 Unknown
06/24/2022 01:44 AM 61.70 18.14 104.90 66.74 10.0 x 4.03 NW 4.25 NW 6.49 NW No x No Precipitation 10/20/2013 10:25 AM 10/20/2013 10:25 AM x x x x x 0.02 Unknown
06/24/2022 01:45 AM 61.70 18.14 104.90 x 10.0 x 3.80 NW 4.70 N 6.49 NW No x No Precipitation 10/20/2013 10:25 AM 10/20/2013 10:25 AM x x x x x 0.02 Unknown
06/24/2022 01:46 AM 61.70 18.14 104.90 66.74 10.0 x x NW 3.58 NW 5.37 NW No x No Precipitation 10/20/2013 10:25 AM 10/20/2013 10:25 AM x x x x x 0.02 Unknown
06/24/2022 01:47 AM 61.70 18.14 104.90 66.74 10.0 x 3.36 NW 3.36 N 5.37 NW No x No Precipitation 10/20/2013 10:25 AM 10/20/2013 10:25 AM x x x x x 0.02 Unknown
06/24/2022 01:48 AM 61.70 17.96 104.90 66.74 10.0 x 3.36 NW 3.58 NW 5.37 NW No x No Precipitation 10/20/2013 10:25 AM 10/20/2013 10:25 AM x x x x x 0.02 Unknown
06/24/2022 01:49 AM 61.70 17.96 104.90 66.74 10.0 x 3.58 N 5.59 N 5.59 N No x No Precipitation 10/20/2013 10:25 AM 10/20/2013 10:25 AM x x x x x 0.02 Unknown
06/24/2022 01:50 AM 61.70 17.96 104.90 66.74 10.0 x 3.58 N 4.03 NW 5.59 N No x No Precipitation 10/20/2013 10:25 AM 10/20/2013 10:25 AM x x x x x 0.02 Unknown
06/24/2022 01:51 AM 61.70 17.96 104.90 66.74 10.0 x 4.03 N 3.13 N 5.59 N No x No Precipitation 10/20/2013 10:25 AM 10/20/2013 10:25 AM x x x x x 0.02 Unknown
06/24/2022 01:52 AM 61.70 17.96 104.90 66.74 10.0 x 4.25 N 4.25 NW 5.59 N No x No Precipitation 10/20/2013 10:25 AM 10/20/2013 10:25 AM x x x x x 0.02 Unknown
06/24/2022 01:53 AM 61.70 17.96 104.90 66.74 10.0 x 3.80 NW 3.58 NW 5.59 N No x No Precipitation 10/20/2013 10:25 AM 10/20/2013 10:25 AM x x x x x 0.02 Unknown
06/24/2022 01:54 AM 61.52 17.78 104.90 66.74 10.0 x 3.36 NW 3.80 NW 5.59 N No x No Precipitation 10/20/2013 10:25 AM 10/20/2013 10:25 AM x x x x x 0.02 Unknown
06/24/2022 01:55 AM 61.52 17.78 104.90 66.74 10.0 x 3.36 NW 3.58 NW 5.59 N No x No Precipitation 10/20/2013 10:25 AM 10/20/2013 10:25 AM x x x x x 0.02 Unknown
06/24/2022 01:56 AM 61.52 17.78 104.90 66.74 10.0 x 3.13 NW 2.24 NW 5.59 N No x No Precipitation 10/20/2013 10:25 AM 10/20/2013 10:25 AM x x x x x 0.02 Unknown
06/24/2022 01:57 AM 61.52 17.78 104.90 66.74 10.0 x 2.91 NW 0.22 NW 5.59 N No x No Precipitation 10/20/2013 10:25 AM 10/20/2013 10:25 AM x x x x x 0.02 Unknown
06/24/2022 01:58 AM 61.34 17.60 104.90 66.74 10.0 x 2.68 NW 3.58 NW 5.59 N No x No Precipitation 10/20/2013 10:25 AM 10/20/2013 10:25 AM x x x x x 0.02 Unknown
06/24/2022 01:59 AM 61.34 17.42 104.90 66.74 10.0 x 3.13 NW 2.91 N 4.92 N No x No Precipitation 10/20/2013 10:25 AM 10/20/2013 10:25 AM x x x x x 0.02 Unknown
06/24/2022 02:00 AM 61.34 17.42 104.90 66.74 10.0 x 3.58 NW 4.03 N 4.70 NW No x No Precipitation 10/20/2013 10:25 AM 10/20/2013 10:25 AM x x x x x 0.02 Unknown
06/24/2022 02:01 AM 61.16 17.42 104.90 66.74 10.0 x 3.36 NW 3.13 NW 4.47 NW No x No Precipitation 10/20/2013 10:25 AM 10/20/2013 10:25 AM x x x x x 0.02 Unknown
06/24/2022 02:02 AM 61.16 17.42 104.90 66.74 10.0 x 3.13 N 3.58 NW 4.47 NW No x No Precipitation 10/20/2013 10:25 AM 10/20/2013 10:25 AM x x x x x 0.02 Unknown
06/24/2022 02:03 AM 61.16 17.42 104.90 66.74 10.0 x 3.13 NW 4.03 NW 4.47 NW No x No Precipitation 10/20/2013 10:25 AM 10/20/2013 10:25 AM x x x x x 0.02 Unknown
06/24/2022 02:04 AM 61.16 17.24 104.90 66.74 10.0 x 3.58 NW 4.70 NW 4.92 NW No x No Precipitation 10/20/2013 10:25 AM 10/20/2013 10:25 AM x x x x x 0.02 Unknown
06/24/2022 02:05 AM 61.16 17.24 104.90 66.74 10.0 x 3.58 NW 1.57 NW 4.92 NW No x No Precipitation 10/20/2013 10:25 AM 10/20/2013 10:25 AM x x x x x 0.02 Unknown
06/24/2022 02:06 AM 61.16 17.24 104.90 66.74 10.0 x 3.13 NW 4.03 NW 4.92 NW No x No Precipitation 10/20/2013 10:25 AM 10/20/2013 10:25 AM x x x x x 0.02 Unknown
06/24/2022 02:07 AM 61.16 17.24 104.90 66.74 10.0 x 3.58 NW 3.13 NW 5.37 NW No x No Precipitation 10/20/2013 10:25 AM 10/20/2013 10:25 AM x x x x x 0.02 Unknown
06/24/2022 02:08 AM 61.16 17.24 104.90 66.74 10.0 x 3.80 NW 4.25 NW 5.37 NW No x No Precipitation 10/20/2013 10:25 AM 10/20/2013 10:25 AM x x x x x 0.02 Unknown
06/24/2022 02:09 AM 60.98 17.06 104.90 66.74 10.0 x 3.58 NW 1.79 NW 5.37 NW No x No Precipitation 10/20/2013 10:25 AM 10/20/2013 10:25 AM x x x x x 0.02 Unknown
06/24/2022 02:10 AM 60.98 17.06 104.90 66.74 10.0 x 3.36 NW 3.13 NW 5.37 NW No x No Precipitation 10/20/2013 10:25 AM 10/20/2013 10:25 AM x x x x x 0.02 Unknown
06/24/2022 02:11 AM 60.98 17.06 104.90 66.74 10.0 x x NW 4.03 N 5.37 NW No x No Precipitation 10/20/2013 10:25 AM 10/20/2013 10:25 AM x x x x x 0.02 Unknown
06/24/2022 02:12 AM 60.98 17.06 104.90 66.74 10.0 x 2.91 N 4.03 NW 5.37 NW No x No Precipitation 10/20/2013 10:25 AM 10/20/2013 10:25 AM x x x x x 0.02 Unknown
06/24/2022 02:13 AM 61.16 17.42 104.90 66.74 10.0 x 2.91 N 3.58 N 5.37 NW No x No Precipitation 10/20/2013 10:25 AM 10/20/2013 10:25 AM x x x x x 0.02 Unknown
06/24/2022 02:14 AM 61.16 17.24 104.90 66.74 10.0 x 2.68 NW 3.80 NW 5.37 NW No x No Precipitation 10/20/2013 10:25 AM 10/20/2013 10:25 AM x x x x x 0.02 Unknown
06/24/2022 02:15 AM 61.16 17.24 104.90 66.74 10.0 x 3.36 NW 3.58 NW 5.37 NW No x No Precipitation 10/20/2013 10:25 AM 10/20/2013 10:25 AM x x x x x 0.02 Unknown
06/24/2022 02:16 AM 61.16 17.24 104.90 66.74 10.0 x 3.58 NW 2.46 NW 4.92 NW No x No Precipitation 10/20/2013 10:25 AM 10/20/2013 10:25 AM x x x x x 0.02 Unknown
06/24/2022 02:17 AM 61.16 17.24 104.90 66.74 10.0 x 3.13 NW 3.58 NW 4.92 NW No x No Precipitation 10/20/2013 10:25 AM 10/20/2013 10:25 AM x x x x x 0.02 Unknown
06/24/2022 02:18 AM 60.98 17.06 104.90 66.74 10.0 x 3.13 NW 2.68 NW 4.92 NW No x No Precipitation 10/20/2013 10:25 AM 10/20/2013 10:25 AM x x x x x 0.02 Unknown
06/24/2022 02:19 AM 60.98 17.06 104.90 66.74 10.0 x 2.68 NW 2.01 NW 4.92 NW No x No Precipitation 10/20/2013 10:25 AM 10/20/2013 10:25 AM x x x x x 0.02 Unknown
06/24/2022 02:20 AM 60.98 17.06 104.90 66.74 10.0 x 2.91 NW 3.36 NW 4.92 NW No x No Precipitation 10/20/2013 10:25 AM 10/20/2013 10:25 AM x x x x x 0.02 Unknown
06/24/2022 02:21 AM 60.98 17.06 104.90 66.74 10.0 x 3.13 NW 3.58 W 4.92 NW No x No Precipitation 10/20/2013 10:25 AM 10/20/2013 10:25 AM x x x x x 0.02 Unknown
06/24/2022 02:22 AM 60.98 17.06 104.90 66.74 10.0 x 2.91 NW 3.36 NW 4.92 NW No x No Precipitation 10/20/2013 10:25 AM 10/20/2013 10:25 AM x x x x x 0.02 Unknown
06/24/2022 02:23 AM 60.98 17.06 104.90 66.74 10.0 x 3.13 NW 2.68 NW 4.92 NW No x No Precipitation 10/20/2013 10:25 AM 10/20/2013 10:25 AM x x x x x 0.02 Unknown
06/24/2022 02:24 AM 60.80 16.88 104.90 66.74 10.0 x 3.13 NW 1.34 NW 4.25 NW No x No Precipitation 10/20/2013 10:25 AM 10/20/2013 10:25 AM x x x x x 0.02 Unknown
06/24/2022 02:25 AM 60.80 16.88 104.90 66.74 10.0 x 2.68 W 2.91 W 4.25 NW No x No Precipitation 10/20/2013 10:25 AM 10/20/2013 10:25 AM x x x x x 0.02 Unknown
06/24/2022 02:26 AM 60.80 16.70 104.90 66.74 10.0 x 2.46 NW 3.13 NW 4.25 NW No x No Precipitation 10/20/2013 10:25 AM 10/20/2013 10:25 AM x x x x x 0.02 Unknown
06/24/2022 02:27 AM 60.80 16.70 104.90 66.74 10.0 x 2.46 NW 2.46 NW 4.25 NW No x No Precipitation 10/20/2013 10:25 AM 10/20/2013 10:25 AM x x x x x 0.02 Unknown
06/24/2022 02:28 AM 60.62 16.70 104.90 66.74 10.0 x 2.68 NW 2.46 NW 4.25 NW No x No Precipitation 10/20/2013 10:25 AM 10/20/2013 10:25 AM x x x x x 0.02 Unknown
06/24/2022 02:29 AM 60.62 16.52 104.90 66.74 10.0 x 2.91 NW 3.58 NW 4.03 NW No x No Precipitation 10/20/2013 10:25 AM 10/20/2013 10:25 AM x x x x x 0.02 Unknown
06/24/2022 02:30 AM 60.62 16.52 104.90 66.74 10.0 x 2.91 NW 3.58 NW 4.03 NW No x No Precipitation 10/20/2013 10:25 AM 10/20/2013 10:25 AM x x x x x 0.02 Unknown
06/24/2022 02:31 AM 60.44 16.52 104.90 66.74 10.0 x 3.13 NW 3.36 NW 5.14 NW No x No Precipitation 10/20/2013 10:25 AM 10/20/2013 10:25 AM x x x x x 0.02 Unknown
06/24/2022 02:32 AM 60.44 16.52 104.90 66.74 10.0 x 3.13 NW 1.34 NW 5.14 NW No x No Precipitation 10/20/2013 10:25 AM 10/20/2013 10:25 AM x x x x x 0.02 Unknown
06/24/2022 02:33 AM 60.44 16.52 104.90 66.74 10.0 x 2.46 NW 2.01 W 5.14 NW No x No Precipitation 10/20/2013 10:25 AM 10/20/2013 10:25 AM x x x x x 0.02 Unknown
06/24/2022 02:34 AM 60.44 16.52 104.90 66.74 10.0 x 1.79 NW 1.79 NW 5.14 NW No x No Precipitation 10/20/2013 10:25 AM 10/20/2013 10:25 AM x x x x x 0.02 Unknown
06/24/2022 02:35 AM 60.44 16.34 104.90 66.74 10.0 x 1.34 NW 1.79 W 5.14 NW No x No Precipitation 10/20/2013 10:25 AM 10/20/2013 10:25 AM x x x x x 0.02 Unknown
06/24/2022 02:36 AM 60.44 16.34 104.90 66.74 10.0 x 1.57 NW 3.36 NW 5.14 NW No x No Precipitation 10/20/2013 10:25 AM 10/20/2013 10:25 AM x x x x x 0.02 Unknown
06/24/2022 02:37 AM 60.44 16.34 104.90 66.74 10.0 x 1.34 W 0.22 W 5.14 NW No x No Precipitation 10/20/2013 10:25 AM 10/20/2013 10:25 AM x x x x x 0.02 Unknown
06/24/2022 02:38 AM 60.44 16.34 104.90 66.74 10.0 x 0.67 W 0.45 S 5.14 NW No x No Precipitation 10/20/2013 10:25 AM 10/20/2013 10:25 AM x x x x x 0.02 Unknown
06/24/2022 02:39 AM 60.26 16.16 104.90 66.74 10.0 x 0.89 S 2.24 SW 5.14 NW No x No Precipitation 10/20/2013 10:25 AM 10/20/2013 10:25 AM x x x x x 0.02 Unknown
06/24/2022 02:40 AM 60.26 16.16 104.90 66.74 10.0 x 1.79 S 1.34 SW 5.14 NW No x No Precipitation 10/20/2013 10:25 AM 10/20/2013 10:25 AM x x x x x 0.02 Unknown
06/24/2022 02:41 AM 60.26 16.16 104.90 66.74 10.0 x 2.01 S 1.34 SW 3.80 S No x No Precipitation 10/20/2013 10:25 AM 10/20/2013 10:25 AM x x x x x 0.02 Unknown
06/24/2022 02:42 AM 60.26 16.16 104.90 66.74 10.0 x 1.57 SW 2.91 SW 3.80 S No x No Precipitation 10/20/2013 10:25 AM 10/20/2013 10:25 AM x x x x x 0.02 Unknown
06/24/2022 02:43 AM 60.26 16.16 104.90 66.74 10.0 x 2.24 SW 2.68 SW 4.47 S No x No Precipitation 10/20/2013 10:25 AM 10/20/2013 10:25 AM x x x x x 0.02 Unknown
06/24/2022 02:44 AM 60.26 16.16 104.90 66.74 10.0 x 2.24 SW 2.46 SW 4.47 S No x No Precipitation 10/20/2013 10:25 AM 10/20/2013 10:25 AM x x x x x 0.02 Unknown
06/24/2022 02:45 AM 60.26 16.16 104.90 66.74 10.0 x 2.01 SW 1.79 S 4.47 S No x No Precipitation 10/20/2013 10:25 AM 10/20/2013 10:25 AM x x x x x 0.02 Unknown
06/24/2022 02:46 AM 60.26 16.16 104.90 66.74 10.0 x 2.68 SW 3.58 S 4.70 S No x No Precipitation 10/20/2013 10:25 AM 10/20/2013 10:25 AM x x x x x 0.02 Unknown
06/24/2022 02:47 AM 60.26 16.16 104.90 66.74 10.0 x 3.58 SW 5.59 SW 5.59 SW No x No Precipitation 10/20/2013 10:25 AM 10/20/2013 10:25 AM x x x x x 0.02 Unknown
06/24/2022 02:48 AM 60.08 15.80 104.90 66.74 10.0 x 5.37 S 5.82 S 7.83 SW No x No Precipitation 10/20/2013 10:25 AM 10/20/2013 10:25 AM x x x x x 0.02 Unknown
06/24/2022 02:49 AM 59.72 15.44 104.90 66.74 10.0 x 7.16 S 8.28 SW 8.95 S No x No Precipitation 10/20/2013 10:25 AM 10/20/2013 10:25 AM x x x x x 0.02 Unknown
06/24/2022 02:50 AM 59.54 15.08 104.90 66.74 10.0 x 7.38 S 8.50 S 8.95 S No x No Precipitation 10/20/2013 10:25 AM 10/20/2013 10:25 AM x x x x x 0.02 Unknown
06/24/2022 02:51 AM 59.18 14.72 104.90 66.74 10.0 x 7.16 S 6.71 SW 8.95 S No x No Precipitation 10/20/2013 10:25 AM 10/20/2013 10:25 AM x x x x x 0.02 Unknown
06/24/2022 02:52 AM 58.82 14.36 104.90 66.74 10.0 x 6.93 SW 7.61 SW 8.95 S No x No Precipitation 10/20/2013 10:25 AM 10/20/2013 10:25 AM x x x x x 0.02 Unknown
06/24/2022 02:53 AM 58.64 14.00 104.90 66.74 10.0 x 6.49 SW 6.04 SW 8.95 S No x No Precipitation 10/20/2013 10:25 AM 10/20/2013 10:25 AM x x x x x 0.02 Unknown
06/24/2022 02:54 AM 58.28 13.64 104.90 66.74 10.0 x 6.71 S 7.61 S 8.95 S No x No Precipitation 10/20/2013 10:25 AM 10/20/2013 10:25 AM x x x x x 0.02 Unknown
06/24/2022 02:55 AM 58.10 13.28 104.90 66.74 10.0 x 6.71 SW 4.25 SW 8.95 S No x No Precipitation 10/20/2013 10:25 AM 10/20/2013 10:25 AM x x x x x 0.02 Unknown
06/24/2022 02:56 AM 57.92 13.10 104.90 66.74 10.0 x 6.26 SW 5.82 S 8.95 S No x No Precipitation 10/20/2013 10:25 AM 10/20/2013 10:25 AM x x x x x 0.02 Unknown
06/24/2022 02:57 AM 57.74 12.74 104.90 66.74 10.0 x 6.26 SW 7.16 SW 8.95 S No x No Precipitation 10/20/2013 10:25 AM 10/20/2013 10:25 AM x x x x x 0.02 Unknown
06/24/2022 02:58 AM 57.38 12.56 104.90 66.74 10.0 x 6.26 SW 6.26 SW 8.50 S No x No Precipitation 10/20/2013 10:25 AM 10/20/2013 10:25 AM x x x x x 0.02 Unknown
06/24/2022 02:59 AM 57.20 12.38 104.90 66.74 10.0 x 6.71 SW 7.38 SW 8.50 S No x No Precipitation 10/20/2013 10:25 AM 10/20/2013 10:25 AM x x x x x 0.02 Unknown
06/24/2022 03:00 AM 57.02 12.02 104.90 66.74 10.0 x 6.49 SW 5.14 SW 8.05 SW No x No Precipitation 10/20/2013 10:25 AM 10/20/2013 10:25 AM x x x x x 0.02 Unknown
06/24/2022 03:01 AM 57.02 12.02 104.90 66.74 10.0 x 6.26 SW 5.37 SW 8.05 SW No x No Precipitation 10/20/2013 10:25 AM 10/20/2013 10:25 AM x x x x x 0.02 Unknown
06/24/2022 03:02 AM 57.02 12.02 104.90 66.74 10.0 x 6.26 SW 6.49 SW 8.28 SW No x No Precipitation 10/20/2013 10:25 AM 10/20/2013 10:25 AM x x x x x 0.02 Unknown
06/24/2022 03:03 AM 56.84 11.84 104.90 66.74 10.0 x 6.26 SW 6.93 SW 8.28 SW No x No Precipitation 10/20/2013 10:25 AM 10/20/2013 10:25 AM x x x x x 0.02 Unknown
06/24/2022 03:04 AM 56.84 11.84 104.90 66.74 10.0 x 6.26 SW 6.26 S 8.28 SW No x No Precipitation 10/20/2013 10:25 AM 10/20/2013 10:25 AM x x x x x 0.02 Unknown
06/24/2022 03:05 AM 56.84 11.84 104.90 66.74 10.0 x 6.04 SW 4.47 SW 8.28 SW No x No Precipitation 10/20/2013 10:25 AM 10/20/2013 10:25 AM x x x x x 0.02 Unknown
06/24/2022 03:06 AM 56.84 11.84 104.90 66.74 10.0 x 6.04 S 5.82 S 8.28 SW No x No Precipitation 10/20/2013 10:25 AM 10/20/2013 10:25 AM x x x x x 0.02 Unknown
06/24/2022 03:07 AM 57.02 11.84 104.90 66.74 10.0 x 6.04 S 6.04 SW 8.28 SW No x No Precipitation 10/20/2013 10:25 AM 10/20/2013 10:25 AM x x x x x 0.02 Unknown
06/24/2022 03:08 AM 57.02 12.02 104.90 66.74 10.0 x 5.82 S 5.37 S 8.28 SW No x No Precipitation 10/20/2013 10:25 AM 10/20/2013 10:25 AM x x x x x 0.02 Unknown
06/24/2022 03:09 AM 57.02 12.02 104.90 66.74 10.0 x 5.59 SW 5.14 SW 8.28 SW No x No Precipitation 10/20/2013 10:25 AM 10/20/2013 10:25 AM x x x x x 0.02 Unknown
06/24/2022 03:10 AM 56.84 11.84 104.90 66.74 10.0 x 5.14 S 6.04 SW 8.28 SW No x No Precipitation 10/20/2013 10:25 AM 10/20/2013 10:25 AM x x x x x 0.02 Unknown
06/24/2022 03:11 AM 56.84 11.84 104.90 66.74 10.0 x 4.70 S 4.70 S 7.38 SW No x No Precipitation 10/20/2013 10:25 AM 10/20/2013 10:25 AM x x x x x 0.02 Unknown
06/24/2022 03:12 AM 56.84 11.84 104.90 66.74 10.0 x 4.25 S 4.25 SW 7.38 S No x No Precipitation 10/20/2013 10:25 AM 10/20/2013 10:25 AM x x x x x 0.02 Unknown
06/24/2022 03:13 AM 56.84 11.66 104.90 66.74 10.0 x 3.80 S 3.13 SW 7.38 S No x No Precipitation 10/20/2013 10:25 AM 10/20/2013 10:25 AM x x x x x 0.02 Unknown
06/24/2022 03:14 AM 56.84 11.66 104.90 66.74 10.0 x 3.80 S 3.13 S 7.38 S No x No Precipitation 10/20/2013 10:25 AM 10/20/2013 10:25 AM x x x x x 0.02 Unknown
06/24/2022 03:15 AM 56.66 11.66 104.90 66.74 10.0 x 3.58 S 3.58 S 6.93 S No x No Precipitation 10/20/2013 10:25 AM 10/20/2013 10:25 AM x x x x x 0.02 Unknown
06/24/2022 03:16 AM 56.66 11.66 104.90 66.74 10.0 x 3.58 S 4.47 S 6.93 S No x No Precipitation 10/20/2013 10:25 AM 10/20/2013 10:25 AM x x x x x 0.02 Unknown
06/24/2022 03:17 AM 56.66 11.66 104.90 66.74 10.0 x 4.03 S 4.03 SW 6.26 SW No x No Precipitation 10/20/2013 10:25 AM 10/20/2013 10:25 AM x x x x x 0.02 Unknown
06/24/2022 03:18 AM 56.66 11.66 104.90 66.74 10.0 x 4.25 S 3.13 S 6.26 SW No x No Precipitation 10/20/2013 10:25 AM 10/20/2013 10:25 AM x x x x x 0.02 Unknown
06/24/2022 03:19 AM 56.66 11.66 104.90 66.74 10.0 x 4.25 S 4.03 S 6.04 S No x No Precipitation 10/20/2013 10:25 AM 10/20/2013 10:25 AM x x x x x 0.02 Unknown
06/24/2022 03:20 AM 56.66 11.66 104.90 66.74 10.0 x 4.25 S 4.70 S 5.82 S No x No Precipitation 10/20/2013 10:25 AM 10/20/2013 10:25 AM x x x x x 0.02 Unknown
06/24/2022 03:21 AM 56.66 11.66 104.90 66.74 10.0 x 4.25 S 4.25 S 5.82 S No x No Precipitation 10/20/2013 10:25 AM 10/20/2013 10:25 AM x x x x x 0.02 Unknown
06/24/2022 03:22 AM 56.84 11.66 104.90 66.74 10.0 x 4.47 S 4.25 S 5.82 S No x No Precipitation 10/20/2013 10:25 AM 10/20/2013 10:25 AM x x x x x 0.02 Unknown
06/24/2022 03:23 AM 56.84 11.66 104.90 66.74 10.0 x 4.70 S 3.80 S 5.82 S No x No Precipitation 10/20/2013 10:25 AM 10/20/2013 10:25 AM x x x x x 0.02 Unknown
06/24/2022 03:24 AM 56.84 11.66 104.90 66.74 10.0 x 4.47 S 4.70 S 5.82 S No x No Precipitation 10/20/2013 10:25 AM 10/20/2013 10:25 AM x x x x x 0.02 Unknown
06/24/2022 03:25 AM 56.66 11.66 104.90 66.74 10.0 x 4.47 S 4.25 S 5.82 S No x No Precipitation 10/20/2013 10:25 AM 10/20/2013 10:25 AM x x x x x 0.02 Unknown
06/24/2022 03:26 AM 56.66 11.66 104.90 66.74 10.0 x 4.47 S 5.82 S 5.82 S No x No Precipitation 10/20/2013 10:25 AM 10/20/2013 10:25 AM x x x x x 0.02 Unknown
06/24/2022 03:27 AM 56.66 11.48 104.90 66.74 10.0 x 4.25 S 4.47 S 5.82 S No x No Precipitation 10/20/2013 10:25 AM 10/20/2013 10:25 AM x x x x x 0.02 Unknown
06/24/2022 03:28 AM 56.66 11.48 104.90 66.74 10.0 x 4.25 S 4.47 S 5.82 S No x No Precipitation 10/20/2013 10:25 AM 10/20/2013 10:25 AM x x x x x 0.02 Unknown
06/24/2022 03:29 AM 56.66 11.48 104.90 66.74 10.0 x 3.58 S 2.24 S 5.82 S No x No Precipitation 10/20/2013 10:25 AM 10/20/2013 10:25 AM x x x x x 0.02 Unknown
06/24/2022 03:30 AM 56.66 11.66 104.90 66.74 10.0 x 3.36 S 4.92 S 5.82 S No x No Precipitation 10/20/2013 10:25 AM 10/20/2013 10:25 AM x x x x x 0.02 Unknown
06/24/2022 03:31 AM 56.66 11.66 104.90 66.74 10.0 x 3.80 S 4.03 S 5.82 S No x No Precipitation 10/20/2013 10:25 AM 10/20/2013 10:25 AM x x x x x 0.02 Unknown
06/24/2022 03:32 AM 56.66 11.66 104.90 66.74 10.0 x 3.58 S 3.58 SW 5.82 S No x No Precipitation 10/20/2013 10:25 AM 10/20/2013 10:25 AM x x x x x 0.02 Unknown
06/24/2022 03:33 AM 56.66 11.66 104.90 66.74 10.0 x 3.13 S 3.13 S 5.82 S No x No Precipitation 10/20/2013 10:25 AM 10/20/2013 10:25 AM x x x x x 0.02 Unknown
06/24/2022 03:34 AM 56.66 11.66 104.90 66.74 10.0 x 2.91 S 3.36 S 5.82 S No x No Precipitation 10/20/2013 10:25 AM 10/20/2013 10:25 AM x x x x x 0.02 Unknown
06/24/2022 03:35 AM 56.66 11.48 104.90 66.74 10.0 x 2.68 S 2.68 S 5.82 S No x No Precipitation 10/20/2013 10:25 AM 10/20/2013 10:25 AM x x x x x 0.02 Unknown
06/24/2022 03:36 AM 56.66 11.48 104.90 66.74 10.0 x 2.24 S 1.57 SW 5.82 S No x No Precipitation 10/20/2013 10:25 AM 10/20/2013 10:25 AM x x x x x 0.02 Unknown
06/24/2022 03:37 AM 56.48 11.30 104.90 66.74 10.0 x 2.01 S 3.36 S 5.59 S No x No Precipitation 10/20/2013 10:25 AM 10/20/2013 10:25 AM x x x x x 0.02 Unknown
06/24/2022 03:38 AM 56.48 11.30 104.90 66.74 10.0 x 2.01 S 1.12 SW 4.92 S No x No Precipitation 10/20/2013 10:25 AM 10/20/2013 10:25 AM x x x x x 0.02 Unknown
06/24/2022 03:39 AM 56.30 11.12 104.90 66.74 10.0 x 1.34 S 0.67 S 4.92 S No x No Precipitation 10/20/2013 10:25 AM 10/20/2013 10:25 AM x x x x x 0.02 Unknown
06/24/2022 03:40 AM 56.30 10.94 104.90 66.74 10.0 x 1.12 S 2.46 S 4.92 S No x No Precipitation 10/20/2013 10:25 AM 10/20/2013 10:25 AM x x x x x 0.02 Unknown
06/24/2022 03:41 AM 56.30 10.94 104.90 66.74 10.0 x 2.46 S 3.80 S 4.47 S No x No Precipitation 10/20/2013 10:25 AM 10/20/2013 10:25 AM x x x x x 0.02 Unknown
06/24/2022 03:42 AM 56.12 10.94 104.90 66.74 10.0 x 3.13 S 2.68 S 4.47 S No x No Precipitation 10/20/2013 10:25 AM 10/20/2013 10:25 AM x x x x x 0.02 Unknown
06/24/2022 03:43 AM 56.12 10.94 104.90 66.74 10.0 x 3.58 S 3.13 S 4.47 S No x No Precipitation 10/20/2013 10:25 AM 10/20/2013 10:25 AM x x x x x 0.02 Unknown
06/24/2022 03:44 AM 55.94 10.76 104.90 66.74 10.0 x 3.13 S 2.01 SE 4.47 S No x No Precipitation 10/20/2013 10:25 AM 10/20/2013 10:25 AM x x x x x 0.02 Unknown
06/24/2022 03:45 AM 55.76 10.58 104.90 66.74 10.0 x 2.24 SE 1.79 SE 4.47 S No x No Precipitation 10/20/2013 10:25 AM 10/20/2013 10:25 AM x x x x x 0.02 Unknown
06/24/2022 03:46 AM 55.58 10.22 104.90 66.74 10.0 x 1.79 SE 2.24 S 4.47 S No x No Precipitation 10/20/2013 10:25 AM 10/20/2013 10:25 AM x x x x x 0.02 Unknown
06/24/2022 03:47 AM 55.58 10.22 104.90 66.74 10.0 x 2.24 S 3.13 S 4.47 S No x No Precipitation 10/20/2013 10:25 AM 10/20/2013 10:25 AM x x x x x 0.02 Unknown
06/24/2022 03:48 AM 55.40 10.04 104.90 66.74 10.0 x 2.91 S 3.80 S 4.47 S No x No Precipitation 10/20/2013 10:25 AM 10/20/2013 10:25 AM x x x x x 0.02 Unknown
06/24/2022 03:49 AM 55.40 10.04 104.90 66.74 10.0 x 4.03 S 5.14 S 5.14 S No x No Precipitation 10/20/2013 10:25 AM 10/20/2013 10:25 AM x x x x x 0.02 Unknown
06/24/2022 03:50 AM 55.58 10.22 104.90 66.74 10.0 x 4.92 S 5.37 S 5.59 S No x No Precipitation 10/20/2013 10:25 AM 10/20/2013 10:25 AM x x x x x 0.02 Unknown
06/24/2022 03:51 AM 55.58 10.22 104.90 66.74 10.0 x 4.92 S 4.03 S 5.82 S No x No Precipitation 10/20/2013 10:25 AM 10/20/2013 10:25 AM x x x x x 0.02 Unknown
06/24/2022 03:52 AM 55.58 10.22 104.90 66.74 10.0 x 3.80 S 2.91 S 5.82 S No x No Precipitation 10/20/2013 10:25 AM 10/20/2013 10:25 AM x x x x x 0.02 Unknown
06/24/2022 03:53 AM 55.76 10.40 104.90 66.74 10.0 x 3.13 S 3.80 S 5.82 S No x No Precipitation 10/20/2013 10:25 AM 10/20/2013 10:25 AM x x x x x 0.02 Unknown
06/24/2022 03:54 AM 55.76 10.40 104.90 66.74 10.0 x 3.13 S 2.68 SE 5.82 S No x No Precipitation 10/20/2013 10:25 AM 10/20/2013 10:25 AM x x x x x 0.02 Unknown
06/24/2022 03:55 AM 55.58 10.22 104.90 66.74 10.0 x 3.36 SE 3.36 SE 5.82 S No x No Precipitation 10/20/2013 10:25 AM 10/20/2013 10:25 AM x x x x x 0.02 Unknown
06/24/2022 03:56 AM 55.40 10.04 104.90 66.74 10.0 x 3.58 SE 4.03 SE 5.82 S No x No Precipitation 10/20/2013 10:25 AM 10/20/2013 10:25 AM x x x x x 0.02 Unknown
06/24/2022 03:57 AM 55.40 9.86 104.90 66.74 10.0 x 3.80 SE 3.58 SE 5.82 S No x No Precipitation 10/20/2013 10:25 AM 10/20/2013 10:25 AM x x x x x 0.02 Unknown
06/24/2022 03:58 AM 55.22 9.86 104.90 66.74 10.0 x 3.58 SE 3.36 S 5.82 S No x No Precipitation 10/20/2013 10:25 AM 10/20/2013 10:25 AM x x x x x 0.02 Unknown
06/24/2022 03:59 AM 55.22 9.68 104.90 66.74 10.0 x 3.36 S 3.13 S 5.82 S No x No Precipitation 10/20/2013 10:25 AM 10/20/2013 10:25 AM x x x x x 0.02 Unknown
06/24/2022 04:00 AM 55.22 9.68 104.90 66.74 10.0 x 3.36 S 3.80 S 6.04 S No x No Precipitation 10/20/2013 10:25 AM 10/20/2013 10:25 AM x x x x x 0.02 Unknown
06/24/2022 04:01 AM 55.22 9.68 104.90 66.74 10.0 x 3.80 S 4.70 S 6.04 S No x No Precipitation 10/20/2013 10:25 AM 10/20/2013 10:25 AM x x x x x 0.02 Unknown
06/24/2022 04:02 AM 55.22 9.68 104.90 66.74 10.0 x 4.25 S 4.47 S 6.04 S No x No Precipitation 10/20/2013 10:25 AM 10/20/2013 10:25 AM x x x x x 0.02 Unknown
06/24/2022 04:03 AM 55.22 9.68 104.90 66.74 10.0 x 3.58 S 2.46 S 6.04 S No x No Precipitation 10/20/2013 10:25 AM 10/20/2013 10:25 AM x x x x x 0.02 Unknown
06/24/2022 04:04 AM 55.22 9.86 104.90 66.74 10.0 x 2.68 S 1.79 S 6.04 S No x No Precipitation 10/20/2013 10:25 AM 10/20/2013 10:25 AM x x x x x 0.02 Unknown
06/24/2022 04:05 AM 55.40 9.86 104.90 66.74 10.0 x 3.13 SW 3.58 S 6.04 S No x No Precipitation 10/20/2013 10:25 AM 10/20/2013 10:25 AM x x x x x 0.02 Unknown
06/24/2022 04:06 AM 55.40 10.04 104.90 66.74 10.0 x 3.80 S 5.14 S 6.26 S No x No Precipitation 10/20/2013 10:25 AM 10/20/2013 10:25 AM x x x x x 0.02 Unknown
06/24/2022 04:07 AM 55.40 10.04 104.90 66.74 10.0 x 4.25 S 4.03 S 6.26 S No x No Precipitation 10/20/2013 10:25 AM 10/20/2013 10:25 AM x x x x x 0.02 Unknown
06/24/2022 04:08 AM 55.58 10.22 104.90 66.74 10.0 x 4.47 S 4.25 S 6.26 S No x No Precipitation 10/20/2013 10:25 AM 10/20/2013 10:25 AM x x x x x 0.02 Unknown
06/24/2022 04:09 AM 55.58 10.22 104.90 66.74 10.0 x 4.03 S 2.68 SE 6.26 S No x No Precipitation 10/20/2013 10:25 AM 10/20/2013 10:25 AM x x x x x 0.02 Unknown
06/24/2022 04:10 AM 55.58 10.22 104.90 66.74 10.0 x 3.80 S 4.25 S 6.26 S No x No Precipitation 10/20/2013 10:25 AM 10/20/2013 10:25 AM x x x x x 0.02 Unknown
06/24/2022 04:11 AM 55.58 10.22 104.90 66.74 10.0 x 4.25 S 4.03 S 6.26 S No x No Precipitation 10/20/2013 10:25 AM 10/20/2013 10:25 AM x x x x x 0.02 Unknown
06/24/2022 04:12 AM 55.58 10.22 104.90 66.74 10.0 x 4.03 S 3.58 SE 6.26 S No x No Precipitation 10/20/2013 10:25 AM 10/20/2013 10:25 AM x x x x x 0.02 Unknown
06/24/2022 04:13 AM 55.58 10.22 104.90 66.74 10.0 x 4.47 S 6.71 S 6.26 S No x No Precipitation 10/20/2013 10:25 AM 10/20/2013 10:25 AM x x x x x 0.02 Unknown
06/24/2022 04:14 AM 55.58 10.40 104.90 66.74 10.0 x 4.92 S 2.68 SW 6.71 S No x No Precipitation 10/20/2013 10:25 AM 10/20/2013 10:25 AM x x x x x 0.02 Unknown
06/24/2022 04:15 AM 55.58 10.40 104.90 66.74 10.0 x 4.03 S 2.01 S 6.71 S No x No Precipitation 10/20/2013 10:25 AM 10/20/2013 10:25 AM x x x x x 0.02 Unknown
06/24/2022 04:16 AM 55.58 10.40 104.90 66.74 10.0 x 3.13 S 2.68 S 6.71 S No x No Precipitation 10/20/2013 10:25 AM 10/20/2013 10:25 AM x x x x x 0.02 Unknown
06/24/2022 04:17 AM 55.58 10.22 104.90 66.74 10.0 x 3.58 S 4.25 S 6.71 S No x No Precipitation 10/20/2013 10:25 AM 10/20/2013 10:25 AM x x x x x 0.02 Unknown
06/24/2022 04:18 AM 55.58 10.40 104.90 66.74 10.0 x 4.25 S 4.25 S 6.71 S No x No Precipitation 10/20/2013 10:25 AM 10/20/2013 10:25 AM x x x x x 0.02 Unknown
06/24/2022 04:19 AM 55.40 10.22 104.90 66.74 10.0 x 4.03 S 4.03 S 6.71 S No x No Precipitation 10/20/2013 10:25 AM 10/20/2013 10:25 AM x x x x x 0.02 Unknown
06/24/2022 04:20 AM 55.22 10.22 104.90 66.74 10.0 x 3.80 S 3.36 S 6.71 S No x No Precipitation 10/20/2013 10:25 AM 10/20/2013 10:25 AM x x x x x 0.02 Unknown
06/24/2022 04:21 AM 55.04 10.76 104.90 66.74 10.0 x 3.13 S 2.46 SE 6.71 S No x No Precipitation 10/20/2013 10:25 AM 10/20/2013 10:25 AM x x x x x 0.02 Unknown
06/24/2022 04:22 AM 54.86 10.58 104.90 66.74 10.0 x 2.46 SE 1.79 SE 6.71 S No x No Precipitation 10/20/2013 10:25 AM 10/20/2013 10:25 AM x x x x x 0.02 Unknown
06/24/2022 04:23 AM 54.68 10.58 104.90 66.74 10.0 x 2.01 SE 2.68 SE 6.26 S No x No Precipitation 10/20/2013 10:25 AM 10/20/2013 10:25 AM x x x x x 0.02 Unknown
06/24/2022 04:24 AM 54.50 11.12 104.90 66.74 10.0 x 2.46 SE 2.91 S 6.26 S No x No Precipitation 10/20/2013 10:25 AM 10/20/2013 10:25 AM x x x x x 0.02 Unknown
06/24/2022 04:25 AM 54.32 10.94 104.90 66.74 10.0 x 3.58 S 4.92 S 6.26 S No x No Precipitation 10/20/2013 10:25 AM 10/20/2013 10:25 AM x x x x x 0.02 Unknown
06/24/2022 04:26 AM 54.32 10.94 104.90 66.74 10.0 x 5.14 S 5.82 S 8.50 S No x No Precipitation 10/20/2013 10:25 AM 10/20/2013 10:25 AM x x x x x 0.02 Unknown
06/24/2022 04:27 AM 54.50 11.12 104.90 66.74 10.0 x 5.37 S 2.91 S 8.50 S No x No Precipitation 10/20/2013 10:25 AM 10/20/2013 10:25 AM x x x x x 0.02 Unknown
06/24/2022 04:28 AM 54.68 11.30 104.90 66.74 10.0 x 3.80 S 6.49 NE x S No x No Precipitation 10/20/2013 10:25 AM 10/20/2013 10:25 AM x x x x x 0.02 Unknown
06/24/2022 04:29 AM 54.50 11.12 104.90 66.74 10.0 x 4.03 NE 4.47 NE 8.50 S No x No Precipitation 10/20/2013 10:25 AM 10/20/2013 10:25 AM x x x x x 0.02 Unknown
06/24/2022 04:30 AM 54.50 11.12 104.90 66.74 10.0 x 4.25 NE 0.89 N 8.50 S No x No Precipitation 10/20/2013 10:25 AM 10/20/2013 10:25 AM x x x x x 0.02 Unknown
06/24/2022 04:31 AM 54.14 11.66 104.90 66.74 11.0 x 1.79 N 0.00 S 8.50 S No x No Precipitation 10/20/2013 10:25 AM 10/20/2013 10:25 AM x x x x x 0.02 Unknown
06/24/2022 04:32 AM 54.32 11.84 104.90 66.74 11.0 x 1.34 S 3.36 S 8.50 S No x No Precipitation 10/20/2013 10:25 AM 10/20/2013 10:25 AM x x x x x 0.02 Unknown
06/24/2022 04:33 AM 54.50 11.12 104.90 66.74 10.0 x 2.91 S 2.68 S 8.50 S No x No Precipitation 10/20/2013 10:25 AM 10/20/2013 10:25 AM x x x x x 0.02 Unknown
06/24/2022 04:34 AM 54.68 11.30 104.90 66.74 10.0 x 3.36 S 1.79 SE 8.50 S No x No Precipitation 10/20/2013 10:25 AM 10/20/2013 10:25 AM x x x x x 0.02 Unknown
06/24/2022 04:35 AM 54.68 11.30 104.90 66.74 10.0 x 2.46 NE 2.68 NE 7.38 NE No x No Precipitation 10/20/2013 10:25 AM 10/20/2013 10:25 AM x x x x x 0.02 Unknown
06/24/2022 04:36 AM 54.50 11.12 104.90 66.74 10.0 x 2.01 NE 0.89 E 7.38 NE No x No Precipitation 10/20/2013 10:25 AM 10/20/2013 10:25 AM x x x x x 0.02 Unknown
06/24/2022 04:37 AM 54.50 11.12 104.90 66.74 10.0 x 1.12 E 1.57 S 7.38 NE No x No Precipitation 10/20/2013 10:25 AM 10/20/2013 10:25 AM x x x x x 0.02 Unknown
06/24/2022 04:38 AM 54.14 11.66 104.90 66.74 11.0 x 0.89 SW 1.79 W 5.59 NE No x No Precipitation 10/20/2013 10:25 AM 10/20/2013 10:25 AM x x x x x 0.02 Unknown
06/24/2022 04:39 AM 54.14 11.48 104.90 66.74 11.0 x 1.79 SW 1.79 W 5.59 NE No x No Precipitation 10/20/2013 10:25 AM 10/20/2013 10:25 AM x x x x x 0.02 Unknown
06/24/2022 04:40 AM 54.14 11.48 104.90 66.74 11.0 x 1.79 SW 1.12 S 4.25 S No x No Precipitation 10/20/2013 10:25 AM 10/20/2013 10:25 AM x x x x x 0.02 Unknown
06/24/2022 04:41 AM 54.14 11.48 104.90 66.74 11.0 x 1.57 S 0.45 S 4.25 S No x No Precipitation 10/20/2013 10:25 AM 10/20/2013 10:25 AM x x x x x 0.02 Unknown
06/24/2022 04:42 AM 54.14 11.66 104.90 66.74 11.0 x 1.79 S 2.24 S 5.37 S No x No Precipitation 10/20/2013 10:25 AM 10/20/2013 10:25 AM x x x x x 0.02 Unknown
06/24/2022 04:43 AM 54.14 11.66 104.90 66.74 11.0 x 2.01 SW 1.79 SW 5.37 S No x No Precipitation 10/20/2013 10:25 AM 10/20/2013 10:25 AM x x x x x 0.02 Unknown
06/24/2022 04:44 AM 54.14 11.66 104.90 66.74 11.0 x 1.79 SW 1.79 S 5.37 S No x No Precipitation 10/20/2013 10:25 AM 10/20/2013 10:25 AM x x x x x 0.02 Unknown
06/24/2022 04:45 AM 54.14 11.66 104.90 66.74 11.0 x 2.01 S 2.46 S 5.37 S No x No Precipitation 10/20/2013 10:25 AM 10/20/2013 10:25 AM x x x x x 0.02 Unknown
06/24/2022 04:46 AM 54.14 11.66 104.90 66.74 11.0 x 2.46 S 2.91 S 5.37 S No x No Precipitation 10/20/2013 10:25 AM 10/20/2013 10:25 AM x x x x x 0.02 Unknown
06/24/2022 04:47 AM 54.14 11.48 104.90 66.74 11.0 x 2.68 S 2.24 S 5.37 S No x No Precipitation 10/20/2013 10:25 AM 10/20/2013 10:25 AM x x x x x 0.02 Unknown
06/24/2022 04:48 AM 53.96 11.48 104.90 66.74 11.0 x 2.24 S 2.46 S 5.37 S No x No Precipitation 10/20/2013 10:25 AM 10/20/2013 10:25 AM x x x x x 0.02 Unknown
06/24/2022 04:49 AM 53.96 12.20 104.90 66.74 11.0 x 2.68 S 4.03 S 5.37 S No x No Precipitation 10/20/2013 10:25 AM 10/20/2013 10:25 AM x x x x x 0.02 Unknown
06/24/2022 04:50 AM 53.78 12.02 104.90 66.74 11.0 x 2.91 S 2.91 S 5.37 S No x No Precipitation 10/20/2013 10:25 AM 10/20/2013 10:25 AM x x x x x 0.02 Unknown
06/24/2022 04:51 AM 53.96 12.20 104.90 66.74 11.0 x 2.46 S 1.79 W 4.92 S No x No Precipitation 10/20/2013 10:25 AM 10/20/2013 10:25 AM x x x x x 0.02 Unknown
06/24/2022 04:52 AM 53.96 12.20 104.90 66.74 11.0 x 2.01 W 2.91 W 4.92 S No x No Precipitation 10/20/2013 10:25 AM 10/20/2013 10:25 AM x x x x x 0.02 Unknown
06/24/2022 04:53 AM 54.14 12.38 104.90 66.74 11.0 x 2.46 W 2.68 W 4.92 S No x No Precipitation 10/20/2013 10:25 AM 10/20/2013 10:25 AM x x x x x 0.02 Unknown
06/24/2022 04:54 AM 54.14 12.38 104.90 66.74 11.0 x 2.91 W 4.03 NW 4.92 S No x No Precipitation 10/20/2013 10:25 AM 10/20/2013 10:25 AM x x x x x 0.02 Unknown
06/24/2022 04:55 AM 54.14 12.20 104.90 66.74 11.0 x 2.91 W 3.36 W 4.92 S No x No Precipitation 10/20/2013 10:25 AM 10/20/2013 10:25 AM x x x x x 0.02 Unknown
06/24/2022 04:56 AM 53.96 12.20 104.90 66.74 11.0 x 3.36 W 3.13 W 4.92 S No x No Precipitation 10/20/2013 10:25 AM 10/20/2013 10:25 AM x x x x x 0.02 Unknown
06/24/2022 04:57 AM 53.96 12.20 104.90 66.74 11.0 x 3.36 W 2.91 W 4.92 S No x No Precipitation 10/20/2013 10:25 AM 10/20/2013 10:25 AM x x x x x 0.02 Unknown
06/24/2022 04:58 AM 53.96 12.02 104.90 66.74 11.0 x 3.13 W 3.13 W 4.92 S No x No Precipitation 10/20/2013 10:25 AM 10/20/2013 10:25 AM x x x x x 0.02 Unknown
06/24/2022 04:59 AM 53.78 12.02 104.90 66.74 11.0 x 3.36 W 3.58 NW 4.70 W No x No Precipitation 10/20/2013 10:25 AM 10/20/2013 10:25 AM x x x x x 0.02 Unknown
06/24/2022 05:00 AM 53.78 12.02 104.90 66.74 11.0 x 3.36 W 3.13 W 4.70 W No x No Precipitation 10/20/2013 10:25 AM 10/20/2013 10:25 AM x x x x x 0.02 Unknown
06/24/2022 05:01 AM 53.78 11.84 104.90 66.74 11.0 x 3.58 W 3.80 NW 4.70 W No x No Precipitation 10/20/2013 10:25 AM 10/20/2013 10:25 AM x x x x x 0.02 Unknown
06/24/2022 05:02 AM 53.78 11.84 104.90 66.74 11.0 x 3.80 NW 4.25 NW 4.70 W No x No Precipitation 10/20/2013 10:25 AM 10/20/2013 10:25 AM x x x x x 0.02 Unknown
06/24/2022 05:03 AM 53.60 11.84 104.90 66.74 11.0 x 4.03 NW 2.91 NW 4.70 W No x No Precipitation 10/20/2013 10:25 AM 10/20/2013 10:25 AM x x x x x 0.02 Unknown
06/24/2022 05:04 AM 53.42 11.66 104.90 66.74 11.0 x 4.03 NW 3.80 W 4.70 W No x No Precipitation 10/20/2013 10:25 AM 10/20/2013 10:25 AM x x x x x 0.02 Unknown
06/24/2022 05:05 AM 53.60 11.48 104.90 66.74 11.0 x 3.58 W 3.58 W 4.70 NW No x No Precipitation 10/20/2013 10:25 AM 10/20/2013 10:25 AM x x x x x 0.02 Unknown
06/24/2022 05:06 AM 53.60 11.84 104.90 66.74 11.0 x 3.13 W 3.58 W 4.70 NW No x No Precipitation 10/20/2013 10:25 AM 10/20/2013 10:25 AM x x x x x 0.02 Unknown
06/24/2022 05:07 AM 53.60 11.84 104.90 66.74 11.0 x 3.36 W 3.58 W 4.70 NW No x No Precipitation 10/20/2013 10:25 AM 10/20/2013 10:25 AM x x x x x 0.02 Unknown
06/24/2022 05:08 AM 53.60 11.84 104.90 66.74 11.0 x 3.80 W 4.92 W 4.92 W No x No Precipitation 10/20/2013 10:25 AM 10/20/2013 10:25 AM x x x x x 0.02 Unknown
06/24/2022 05:09 AM 53.60 11.84 104.90 66.74 11.0 x 4.03 NW 4.47 NW 4.92 W No x No Precipitation 10/20/2013 10:25 AM 10/20/2013 10:25 AM x x x x x 0.02 Unknown
06/24/2022 05:10 AM 53.42 11.66 104.90 66.74 11.0 x 4.47 NW 4.92 NW 5.14 NW No x No Precipitation 10/20/2013 10:25 AM 10/20/2013 10:25 AM x x x x x 0.02 Unknown
06/24/2022 05:11 AM 53.42 11.66 104.90 66.74 11.0 x 4.25 NW 3.58 NW 5.14 NW No x No Precipitation 10/20/2013 10:25 AM 10/20/2013 10:25 AM x x x x x 0.02 Unknown
06/24/2022 05:12 AM 53.42 12.20 104.90 66.74 11.0 x 3.58 W 3.13 NW 5.14 NW No x No Precipitation 10/20/2013 10:25 AM 10/20/2013 10:25 AM x x x x x 0.02 Unknown
06/24/2022 05:13 AM 53.42 12.38 104.90 66.74 11.0 x 3.13 W 1.12 W 5.14 SW No x No Precipitation 10/20/2013 10:25 AM 10/20/2013 10:25 AM x x x x x 0.02 Unknown
06/24/2022 05:14 AM 53.42 12.56 104.90 66.74 11.0 x 2.68 SW 2.46 W 5.14 SW No x No Precipitation 10/20/2013 10:25 AM 10/20/2013 10:25 AM x x x x x 0.02 Unknown
06/24/2022 05:15 AM 53.60 12.56 104.90 66.74 11.0 x 2.91 W 4.25 W 5.14 SW No x No Precipitation 10/20/2013 10:25 AM 10/20/2013 10:25 AM x x x x x 0.02 Unknown
06/24/2022 05:16 AM 53.78 12.74 104.90 66.74 11.0 x 4.03 W 5.14 W 5.14 SW No x No Precipitation 10/20/2013 10:25 AM 10/20/2013 10:25 AM x x x x x 0.02 Unknown
06/24/2022 05:17 AM 53.78 12.74 104.90 66.74 11.0 x 4.70 W 4.70 W 5.37 W No x No Precipitation 10/20/2013 10:25 AM 10/20/2013 10:25 AM x x x x x 0.02 Unknown
06/24/2022 05:18 AM 53.42 13.28 104.90 66.74 12.0 x 4.70 W 4.47 W 5.37 W No x No Precipitation 10/20/2013 10:25 AM 10/20/2013 10:25 AM x x x x x 0.02 Unknown
06/24/2022 05:19 AM 53.42 13.28 104.90 66.74 12.0 x 4.70 W 4.70 NW 5.37 W No x No Precipitation 10/20/2013 10:25 AM 10/20/2013 10:25 AM x x x x x 0.02 Unknown
06/24/2022 05:20 AM 53.42 13.28 104.90 66.74 12.0 x 4.47 W 3.36 NW 5.37 W No x No Precipitation 10/20/2013 10:25 AM 10/20/2013 10:25 AM x x x x x 0.02 Unknown
06/24/2022 05:21 AM 53.24 13.64 104.90 66.74 12.0 x 4.47 W 4.03 W 5.37 W No x No Precipitation 10/20/2013 10:25 AM 10/20/2013 10:25 AM x x x x x 0.02 Unknown
06/24/2022 05:22 AM 53.24 13.82 104.90 66.74 12.0 x 4.03 W 3.80 W 5.37 W No x No Precipitation 10/20/2013 10:25 AM 10/20/2013 10:25 AM x x x x x 0.02 Unknown
06/24/2022 05:23 AM 53.24 13.82 104.90 66.74 12.0 x 3.58 W 2.68 W 5.37 W No x No Precipitation 10/20/2013 10:25 AM 10/20/2013 10:25 AM x x x x x 0.02 Unknown
06/24/2022 05:24 AM 53.06 14.36 104.90 66.74 13.0 x 3.13 W 2.91 W 5.37 W No x No Precipitation 10/20/2013 10:25 AM 10/20/2013 10:25 AM x x x x x 0.02 Unknown
06/24/2022 05:25 AM 53.06 14.36 104.90 66.74 13.0 x 2.68 W 2.91 W 5.37 W No x No Precipitation 10/20/2013 10:25 AM 10/20/2013 10:25 AM x x x x x 0.02 Unknown
06/24/2022 05:26 AM 53.24 14.54 104.90 66.74 13.0 x 2.68 W 3.80 NW 5.37 W No x No Precipitation 10/20/2013 10:25 AM 10/20/2013 10:25 AM x x x x x 0.02 Unknown
06/24/2022 05:27 AM 53.24 14.54 104.90 66.74 13.0 x 2.46 W 2.01 W 5.37 W No x No Precipitation 10/20/2013 10:25 AM 10/20/2013 10:25 AM x x x x x 0.02 Unknown
06/24/2022 05:28 AM 53.24 14.72 104.90 66.74 13.0 x 2.68 W 3.13 W 5.37 W No x No Precipitation 10/20/2013 10:25 AM 10/20/2013 10:25 AM x x x x x 0.02 Unknown
06/24/2022 05:29 AM 53.42 14.72 104.90 66.74 13.0 x 2.91 W 3.80 W 5.37 W No x No Precipitation 10/20/2013 10:25 AM 10/20/2013 10:25 AM x x x x x 0.02 Unknown
06/24/2022 05:30 AM 53.42 14.72 104.90 66.74 13.0 x 3.36 SW 4.03 SW 4.47 W No x No Precipitation 10/20/2013 10:25 AM 10/20/2013 10:25 AM x x x x x 0.02 Unknown
06/24/2022 05:31 AM 53.60 14.90 104.90 66.74 13.0 x 3.80 SW 2.24 SW 4.47 SW No x No Precipitation 10/20/2013 10:25 AM 10/20/2013 10:25 AM x x x x x 0.02 Unknown
06/24/2022 05:32 AM 53.60 15.08 104.90 66.74 13.0 x 3.80 SW 3.13 SW 4.47 SW No x No Precipitation 10/20/2013 10:25 AM 10/20/2013 10:25 AM x x x x x 0.02 Unknown
06/24/2022 05:33 AM 53.60 15.08 104.90 66.74 13.0 x 3.58 SW 3.13 SW 4.47 SW No x No Precipitation 10/20/2013 10:25 AM 10/20/2013 10:25 AM x x x x x 0.02 Unknown
06/24/2022 05:34 AM 53.60 15.08 104.90 66.74 13.0 x 2.91 SW 2.01 SW 4.47 SW No x No Precipitation 10/20/2013 10:25 AM 10/20/2013 10:25 AM x x x x x 0.02 Unknown
06/24/2022 05:35 AM 53.60 15.08 104.90 66.74 13.0 x 1.79 SW 0.00 SW 4.47 SW No x No Precipitation 10/20/2013 10:25 AM 10/20/2013 10:25 AM x x x x x 0.02 Unknown
06/24/2022 05:36 AM 53.60 15.08 104.90 66.74 13.0 x 0.67 SW 1.57 N 4.47 SW No x No Precipitation 10/20/2013 10:25 AM 10/20/2013 10:25 AM x x x x x 0.02 Unknown
06/24/2022 05:37 AM 53.42 14.72 104.90 66.74 13.0 x 1.12 N 2.01 N 4.47 SW No x No Precipitation 10/20/2013 10:25 AM 10/20/2013 10:25 AM x x x x x 0.02 Unknown
06/24/2022 05:38 AM 53.24 14.72 104.90 66.74 13.0 x 1.34 N 0.00 NW 4.47 SW No x No Precipitation 10/20/2013 10:25 AM 10/20/2013 10:25 AM x x x x x 0.02 Unknown
06/24/2022 05:39 AM 53.24 14.72 104.90 66.74 13.0 x 0.67 N 1.79 SW 4.47 SW No x No Precipitation 10/20/2013 10:25 AM 10/20/2013 10:25 AM x x x x x 0.02 Unknown
06/24/2022 05:40 AM 53.24 14.72 104.90 66.74 13.0 x 1.57 SW 2.46 SW 4.47 SW No x No Precipitation 10/20/2013 10:25 AM 10/20/2013 10:25 AM x x x x x 0.02 Unknown
06/24/2022 05:41 AM 53.42 14.72 104.90 66.74 13.0 x 2.24 W 2.91 W 4.25 SW No x No Precipitation 10/20/2013 10:25 AM 10/20/2013 10:25 AM x x x x x 0.02 Unknown
06/24/2022 05:42 AM 53.60 14.90 104.90 66.74 13.0 x 2.24 W 2.46 NW 4.25 SW No x No Precipitation 10/20/2013 10:25 AM 10/20/2013 10:25 AM x x x x x 0.02 Unknown
06/24/2022 05:43 AM 53.60 15.08 104.90 66.74 13.0 x 2.24 NW 1.34 N 4.25 SW No x No Precipitation 10/20/2013 10:25 AM 10/20/2013 10:25 AM x x x x x 0.02 Unknown
06/24/2022 05:44 AM 53.78 15.08 104.90 66.74 13.0 x 1.79 NW 2.01 NW 4.25 SW No x No Precipitation 10/20/2013 10:25 AM 10/20/2013 10:25 AM x x x x x 0.02 Unknown
06/24/2022 05:45 AM 53.78 15.26 104.90 66.74 13.0 x 1.79 W 2.91 W 4.25 SW No x No Precipitation 10/20/2013 10:25 AM 10/20/2013 10:25 AM x x x x x 0.02 Unknown
06/24/2022 05:46 AM 53.78 15.26 104.90 66.74 13.0 x 2.01 W 2.46 W 4.25 SW No x No Precipitation 10/20/2013 10:25 AM 10/20/2013 10:25 AM x x x x x 0.02 Unknown
06/24/2022 05:47 AM 53.96 15.44 104.90 66.74 13.0 x 2.01 W 2.01 W 4.25 SW No x No Precipitation 10/20/2013 10:25 AM 10/20/2013 10:25 AM x x x x x 0.02 Unknown
06/24/2022 05:48 AM 53.96 15.44 104.90 66.74 13.0 x 2.24 W 2.46 W 4.25 SW No x No Precipitation 10/20/2013 10:25 AM 10/20/2013 10:25 AM x x x x x 0.02 Unknown
06/24/2022 05:49 AM 54.14 15.62 104.90 66.74 13.0 x 2.46 W 2.46 W 3.58 NW No x No Precipitation 10/20/2013 10:25 AM 10/20/2013 10:25 AM x x x x x 0.02 Unknown
06/24/2022 05:50 AM 54.14 15.62 104.90 66.74 13.0 x 2.46 W 2.24 W 3.58 NW No x No Precipitation 10/20/2013 10:25 AM 10/20/2013 10:25 AM x x x x x 0.02 Unknown
06/24/2022 05:51 AM 54.14 15.62 104.90 66.74 13.0 x 2.24 W 2.68 NW 3.58 NW No x No Precipitation 10/20/2013 10:25 AM 10/20/2013 10:25 AM x x x x x 0.02 Unknown
06/24/2022 05:52 AM 54.14 15.62 104.90 66.74 13.0 x 1.57 W 0.67 NW 3.13 W No x No Precipitation 10/20/2013 10:25 AM 10/20/2013 10:25 AM x x x x x 0.02 Unknown
06/24/2022 05:53 AM 54.14 15.62 104.90 66.74 13.0 x 0.89 NW 0.22 NW 3.13 W No x No Precipitation 10/20/2013 10:25 AM 10/20/2013 10:25 AM x x x x x 0.02 Unknown
06/24/2022 05:54 AM 53.96 15.44 104.90 66.74 13.0 x 0.67 NW 1.12 NW 3.13 W No x No Precipitation 10/20/2013 10:25 AM 10/20/2013 10:25 AM x x x x x 0.03 Unknown
06/24/2022 05:55 AM 53.96 15.26 104.90 66.74 13.0 x 0.67 NW 0.00 NW 3.13 W No x No Precipitation 10/20/2013 10:25 AM 10/20/2013 10:25 AM x x x x x 0.03 Unknown
06/24/2022 05:56 AM 53.78 15.08 104.90 66.74 13.0 x 0.45 NW 2.46 SW 3.13 W No x No Precipitation 10/20/2013 10:25 AM 10/20/2013 10:25 AM x x x x x 0.03 Unknown
06/24/2022 05:57 AM 53.78 15.26 104.90 66.74 13.0 x 1.34 NW 2.01 W 3.13 S No x No Precipitation 10/20/2013 10:25 AM 10/20/2013 10:25 AM x x x x x 0.03 Unknown
06/24/2022 05:58 AM 53.96 15.44 104.90 66.74 13.0 x 2.01 W 2.46 W 3.13 S No x No Precipitation 10/20/2013 10:25 AM 10/20/2013 10:25 AM x x x x x 0.03 Unknown
06/24/2022 05:59 AM 53.96 15.44 104.90 66.74 13.0 x 2.01 W 1.79 W 3.13 S No x No Precipitation 10/20/2013 10:25 AM 10/20/2013 10:25 AM x x x x x 0.03 Unknown
06/24/2022 06:00 AM 54.14 15.44 104.90 66.74 13.0 x 2.24 W 3.36 W 3.13 S No x No Precipitation 10/20/2013 10:25 AM 10/20/2013 10:25 AM x x x x x 0.03 Unknown
06/24/2022 06:01 AM 54.14 15.62 104.90 66.74 13.0 x 2.68 NW 2.68 NW 3.80 NW No x No Precipitation 10/20/2013 10:25 AM 10/20/2013 10:25 AM x x x x x 0.03 Unknown
06/24/2022 06:02 AM 54.14 15.80 104.90 66.74 13.0 x 2.68 NW 1.34 W 3.80 NW No x No Precipitation 10/20/2013 10:25 AM 10/20/2013 10:25 AM x x x x x 0.03 Unknown
06/24/2022 06:03 AM 54.14 15.80 104.90 66.74 13.0 x 2.01 NW 1.57 W 3.80 NW No x No Precipitation 10/20/2013 10:25 AM 10/20/2013 10:25 AM x x x x x 0.03 Unknown
06/24/2022 06:04 AM 54.32 15.80 104.90 66.74 13.0 x 1.79 NW 1.79 NW 3.80 NW No x No Precipitation 10/20/2013 10:25 AM 10/20/2013 10:25 AM x x x x x 0.03 Unknown
06/24/2022 06:05 AM 54.32 15.80 104.90 66.74 13.0 x 1.79 W 1.34 NW 3.80 NW No x No Precipitation 10/20/2013 10:25 AM 10/20/2013 10:25 AM x x x x x 0.03 Unknown
06/24/2022 06:06 AM 54.32 15.98 104.90 66.74 13.0 x 1.79 W 2.24 W 3.80 NW No x No Precipitation 10/20/2013 10:25 AM 10/20/2013 10:25 AM x x x x x 0.03 Unknown
06/24/2022 06:07 AM 54.50 16.16 104.90 66.74 13.0 x 2.24 W 1.79 W 4.25 W No x No Precipitation 10/20/2013 10:25 AM 10/20/2013 10:25 AM x x x x x 0.03 Unknown
06/24/2022 06:08 AM 54.50 16.16 104.90 66.74 13.0 x 2.68 W 3.13 W 4.25 W No x No Precipitation 10/20/2013 10:25 AM 10/20/2013 10:25 AM x x x x x 0.03 Unknown
06/24/2022 06:09 AM 54.50 16.16 104.90 66.74 13.0 x 2.91 W 4.03 W 4.25 W No x No Precipitation 10/20/2013 10:25 AM 10/20/2013 10:25 AM x x x x x 0.03 Unknown
06/24/2022 06:10 AM 54.50 16.16 104.90 66.74 13.0 x 3.80 W 2.68 W 4.47 W No x No Precipitation 10/20/2013 10:25 AM 10/20/2013 10:25 AM x x x x x 0.03 Unknown
06/24/2022 06:11 AM 54.50 16.16 104.90 66.74 13.0 x 3.80 W 3.80 W 4.47 W No x No Precipitation 10/20/2013 10:25 AM 10/20/2013 10:25 AM x x x x x 0.03 Unknown
06/24/2022 06:12 AM 54.50 16.16 104.90 66.74 13.0 x 3.36 W 3.13 SW 4.47 W No x No Precipitation 10/20/2013 10:25 AM 10/20/2013 10:25 AM x x x x x 0.03 Unknown
06/24/2022 06:13 AM 54.50 16.16 104.90 66.74 13.0 x 3.13 SW 3.58 SW 4.47 W No x No Precipitation 10/20/2013 10:25 AM 10/20/2013 10:25 AM x x x x x 0.03 Unknown
06/24/2022 06:14 AM 54.50 16.16 104.90 66.74 13.0 x 2.91 SW 3.58 W 4.47 W No x No Precipitation 10/20/2013 10:25 AM 10/20/2013 10:25 AM x x x x x 0.03 Unknown
06/24/2022 06:15 AM 54.50 16.16 104.90 66.74 13.0 x 2.46 W 2.01 W 4.47 W No x No Precipitation 10/20/2013 10:25 AM 10/20/2013 10:25 AM x x x x x 0.03 Unknown
06/24/2022 06:16 AM 54.68 16.34 104.90 66.74 13.0 x 2.01 W 1.57 SW 4.47 W No x No Precipitation 10/20/2013 10:25 AM 10/20/2013 10:25 AM x x x x x 0.04 Unknown
06/24/2022 06:17 AM 54.68 16.34 104.90 66.74 13.0 x 2.01 W 1.57 W 4.47 W No x No Precipitation 10/20/2013 10:25 AM 10/20/2013 10:25 AM x x x x x 0.03 Unknown
06/24/2022 06:18 AM 54.68 16.34 104.90 66.74 13.0 x 1.57 W 1.57 SW 4.47 W No x No Precipitation 10/20/2013 10:25 AM 10/20/2013 10:25 AM x x x x x 0.04 Unknown
06/24/2022 06:19 AM 54.86 16.34 104.90 66.74 13.0 x 0.89 W 1.12 W 4.03 W No x No Precipitation 10/20/2013 10:25 AM 10/20/2013 10:25 AM x x x x x 0.04 Unknown
06/24/2022 06:20 AM 55.04 15.98 104.90 66.74 12.0 x 0.89 S 0.89 NW 3.80 SW No x No Precipitation 10/20/2013 10:25 AM 10/20/2013 10:25 AM x x x x x 0.04 Unknown
06/24/2022 06:21 AM 55.04 15.98 104.90 66.74 12.0 x 1.12 W 1.12 W 3.58 W No x No Precipitation 10/20/2013 10:25 AM 10/20/2013 10:25 AM x x x x x 0.04 Unknown
06/24/2022 06:22 AM 55.22 16.16 104.90 66.74 12.0 x 1.12 W 1.57 W 3.58 W No x No Precipitation 10/20/2013 10:25 AM 10/20/2013 10:25 AM x x x x x 0.04 Unknown
06/24/2022 06:23 AM 55.22 16.34 104.90 66.74 12.0 x 0.89 NW 1.57 SW 3.58 W No x No Precipitation 10/20/2013 10:25 AM 10/20/2013 10:25 AM x x x x x 0.04 Unknown
06/24/2022 06:24 AM 55.40 16.34 104.90 66.74 12.0 x 1.12 W 1.79 W 3.58 W No x No Precipitation 10/20/2013 10:25 AM 10/20/2013 10:25 AM x x x x x 0.04 Unknown
06/24/2022 06:25 AM 55.40 16.34 104.90 66.74 12.0 x 1.57 W 1.79 W 2.46 W No x No Precipitation 10/20/2013 10:25 AM 10/20/2013 10:25 AM x x x x x 0.04 Unknown
06/24/2022 06:26 AM 55.40 16.52 104.90 66.74 12.0 x 1.57 W 1.79 SW 2.46 SW No x No Precipitation 10/20/2013 10:25 AM 10/20/2013 10:25 AM x x x x x 0.04 Unknown
06/24/2022 06:27 AM 55.40 16.52 104.90 66.74 12.0 x 1.34 W 0.67 W 2.24 W No x No Precipitation 10/20/2013 10:25 AM 10/20/2013 10:25 AM x x x x x 0.04 Unknown
06/24/2022 06:28 AM 55.58 15.98 104.90 66.74 12.0 x 1.12 W 1.79 SW 2.24 W No x No Precipitation 10/20/2013 10:25 AM 10/20/2013 10:25 AM x x x x x 0.04 Unknown
06/24/2022 06:29 AM 55.94 15.44 104.90 66.74 11.0 x 1.12 SW 1.12 SW 2.24 W No x No Precipitation 10/20/2013 10:25 AM 10/20/2013 10:25 AM x x x x x 0.04 Unknown
06/24/2022 06:30 AM 55.94 15.62 104.90 66.74 11.0 x 1.34 SW 0.45 W 3.36 S No x No Precipitation 10/20/2013 10:25 AM 10/20/2013 10:25 AM x x x x x 0.04 Unknown
06/24/2022 06:31 AM 56.12 15.62 104.90 66.74 11.0 x 1.57 SW 1.12 W 3.36 S No x No Precipitation 10/20/2013 10:25 AM 10/20/2013 10:25 AM x x x x x 0.04 Unknown
06/24/2022 06:32 AM 56.30 15.26 x 66.74 11.0 x 1.34 W 1.79 W 3.36 S No x No Precipitation 10/20/2013 10:25 AM 10/20/2013 10:25 AM x x x x x 0.04 Unknown
06/24/2022 06:33 AM 56.48 15.26 104.90 66.74 11.0 x 1.34 SW 1.57 SW 3.36 S No x No Precipitation 10/20/2013 10:25 AM 10/20/2013 10:25 AM x x x x x 0.04 Unknown
06/24/2022 06:34 AM 56.66 14.72 104.90 66.74 11.0 x 1.57 SW 0.45 S 3.36 S No x No Precipitation 10/20/2013 10:25 AM 10/20/2013 10:25 AM x x x x x 0.04 Unknown
06/24/2022 06:35 AM 57.02 14.18 104.90 66.74 10.0 x 1.12 SW 1.12 SW 3.36 S No x No Precipitation 10/20/2013 10:25 AM 10/20/2013 10:25 AM x x x x x 0.04 Unknown
06/24/2022 06:36 AM 57.20 14.36 104.90 66.74 10.0 x 0.89 SW 0.67 S 3.36 S No x No Precipitation 10/20/2013 10:25 AM 10/20/2013 10:25 AM x x x x x 0.04 Unknown
06/24/2022 06:37 AM 57.20 14.54 104.90 66.74 10.0 x 0.67 SW 0.45 SW 3.36 S No x No Precipitation 10/20/2013 10:25 AM 10/20/2013 10:25 AM x x x x x 0.04 Unknown
06/24/2022 06:38 AM 57.38 13.82 104.90 66.74 10.0 x 0.67 SW 1.12 S 3.58 S No x No Precipitation 10/20/2013 10:25 AM 10/20/2013 10:25 AM x x x x x 0.04 Unknown
06/24/2022 06:39 AM 57.74 13.10 104.90 66.74 10.0 x 1.12 S 0.45 NW 3.58 S No x No Precipitation 10/20/2013 10:25 AM 10/20/2013 10:25 AM x x x x x 0.04 Unknown
06/24/2022 06:40 AM 57.92 13.10 104.90 66.74 10.0 x 0.89 NW 1.79 W 3.58 S No x No Precipitation 10/20/2013 10:25 AM 10/20/2013 10:25 AM x x x x x 0.04 Unknown
06/24/2022 06:41 AM 58.10 13.28 104.90 66.74 10.0 x 1.12 NW 1.34 W 3.58 S No x No Precipitation 10/20/2013 10:25 AM 10/20/2013 10:25 AM x x x x x 0.04 Unknown
06/24/2022 06:42 AM 58.28 13.46 104.90 66.74 10.0 x 1.34 SW 0.67 W 3.58 S No x No Precipitation 10/20/2013 10:25 AM 10/20/2013 10:25 AM x x x x x 0.04 Unknown
06/24/2022 06:43 AM 58.28 13.64 104.90 66.74 10.0 x 1.34 SW 1.57 SW 3.58 S No x No Precipitation 10/20/2013 10:25 AM 10/20/2013 10:25 AM x x x x x 0.04 Unknown
06/24/2022 06:44 AM 58.46 13.64 104.90 66.74 10.0 x 1.57 S 1.57 S 4.03 S No x No Precipitation 10/20/2013 10:25 AM 10/20/2013 10:25 AM x x x x x 0.04 Unknown
06/24/2022 06:45 AM 58.46 13.82 104.90 66.74 10.0 x 1.79 S 0.45 S 4.03 S No x No Precipitation 10/20/2013 10:25 AM 10/20/2013 10:25 AM x x x x x 0.04 Unknown
06/24/2022 06:46 AM 58.64 14.00 104.90 66.74 10.0 x 1.79 S 2.01 SW 4.03 S No x No Precipitation 10/20/2013 10:25 AM 10/20/2013 10:25 AM x x x x x 0.04 Unknown
06/24/2022 06:47 AM 58.64 14.00 104.90 66.74 10.0 x 2.01 S 2.24 S 4.47 S No x No Precipitation 10/20/2013 10:25 AM 10/20/2013 10:25 AM x x x x x 0.04 Unknown
06/24/2022 06:48 AM 58.82 14.18 104.90 66.74 10.0 x 1.79 S 0.45 SW 4.47 S No x No Precipitation 10/20/2013 10:25 AM 10/20/2013 10:25 AM x x x x x 0.04 Unknown
06/24/2022 06:49 AM 58.82 14.36 104.90 66.74 10.0 x 1.12 SW 0.67 W 4.47 S No x No Precipitation 10/20/2013 10:25 AM 10/20/2013 10:25 AM x x x x x 0.04 Unknown
06/24/2022 06:50 AM 59.00 14.36 104.90 66.74 10.0 x 1.34 W 0.45 SW 4.47 S No x No Precipitation 10/20/2013 10:25 AM 10/20/2013 10:25 AM x x x x x 0.04 Unknown
06/24/2022 06:51 AM 59.00 14.36 104.90 66.74 10.0 x 0.89 SW 0.45 S 4.47 S No x No Precipitation 10/20/2013 10:25 AM 10/20/2013 10:25 AM x x x x x 0.04 Unknown
06/24/2022 06:52 AM 59.00 14.54 104.90 66.74 10.0 x 0.22 SW 1.12 S 4.47 S No x No Precipitation 10/20/2013 10:25 AM 10/20/2013 10:25 AM x x x x x 0.04 Unknown
06/24/2022 06:53 AM 59.18 14.72 104.90 66.74 10.0 x 0.67 S 1.12 NE 4.47 S No x No Precipitation 10/20/2013 10:25 AM 10/20/2013 10:25 AM x x x x x 0.04 Unknown
06/24/2022 06:54 AM 59.00 14.54 104.90 66.74 10.0 x 1.12 NE 0.89 NE 4.47 S No x No Precipitation 10/20/2013 10:25 AM 10/20/2013 10:25 AM x x x x x 0.04 Unknown
06/24/2022 06:55 AM 59.00 14.36 104.90 66.74 10.0 x 0.89 NE 0.45 NE 4.47 S No x No Precipitation 10/20/2013 10:25 AM 10/20/2013 10:25 AM x x x x x 0.04 Unknown
06/24/2022 06:56 AM 58.82 14.36 104.90 66.74 10.0 x 0.67 NE 0.00 NE 4.47 S No x No Precipitation 10/20/2013 10:25 AM 10/20/2013 10:25 AM x x x x x 0.04 Unknown
06/24/2022 06:57 AM 58.82 14.36 104.90 66.74 10.0 x 0.45 NE 0.22 SE 2.68 NW No x No Precipitation 10/20/2013 10:25 AM 10/20/2013 10:25 AM x x x x x 0.04 Unknown
06/24/2022 06:58 AM 58.82 14.36 104.90 66.74 10.0 x 0.67 NE 1.34 NE 2.68 NW No x No Precipitation 10/20/2013 10:25 AM 10/20/2013 10:25 AM x x x x x 0.04 Unknown
06/24/2022 06:59 AM 59.00 14.36 104.90 66.74 10.0 x 0.89 NE 1.57 NE 2.68 S No x No Precipitation 10/20/2013 10:25 AM 10/20/2013 10:25 AM x x x x x 0.04 Unknown
06/24/2022 07:00 AM 59.00 14.36 104.90 66.74 10.0 x 1.12 NE 1.34 NW 2.68 S No x No Precipitation 10/20/2013 10:25 AM 10/20/2013 10:25 AM x x x x x 0.04 Unknown
06/24/2022 07:01 AM 59.00 14.36 104.90 66.74 10.0 x 1.34 NE 1.12 NE 2.91 NW No x No Precipitation 10/20/2013 10:25 AM 10/20/2013 10:25 AM x x x x x 0.04 Unknown
06/24/2022 07:02 AM 59.00 14.36 104.90 66.74 10.0 x 1.12 NE 0.89 NE 2.91 NW No x No Precipitation 10/20/2013 10:25 AM 10/20/2013 10:25 AM x x x x x 0.04 Unknown
06/24/2022 07:03 AM 59.00 14.36 104.90 66.74 10.0 x 0.67 NE 0.00 NW 2.91 NW No x No Precipitation 10/20/2013 10:25 AM 10/20/2013 10:25 AM x x x x x 0.04 Unknown
06/24/2022 07:04 AM 59.00 14.54 104.90 66.74 10.0 x 0.45 NE 0.00 S 2.91 NW No x No Precipitation 10/20/2013 10:25 AM 10/20/2013 10:25 AM x x x x x 0.04 Unknown
06/24/2022 07:05 AM 59.18 14.72 104.90 66.74 10.0 x 0.22 NE 0.00 NE 2.91 NW No x No Precipitation 10/20/2013 10:25 AM 10/20/2013 10:25 AM x x x x x 0.04 Unknown
06/24/2022 07:06 AM 59.18 14.72 104.90 66.74 10.0 x 0.45 NE 1.34 NE 2.91 NW No x No Precipitation 10/20/2013 10:25 AM 10/20/2013 10:25 AM x x x x x 0.04 Unknown
06/24/2022 07:07 AM 59.36 14.90 104.90 66.74 10.0 x 1.12 NE 2.01 NE 2.91 NW No x No Precipitation 10/20/2013 10:25 AM 10/20/2013 10:25 AM x x x x x 0.04 Unknown
06/24/2022 07:08 AM 59.36 15.08 104.90 66.74 10.0 x 1.79 NE 2.46 NE 2.91 NW No x No Precipitation 10/20/2013 10:25 AM 10/20/2013 10:25 AM x x x x x 0.04 Unknown
06/24/2022 07:09 AM 59.36 15.08 104.90 66.74 10.0 x 2.46 NE 2.68 NE 3.13 N No x No Precipitation 10/20/2013 10:25 AM 10/20/2013 10:25 AM x x x x x 0.04 Unknown
06/24/2022 07:10 AM 59.54 15.08 104.90 66.74 10.0 x 3.13 N 3.36 N 4.03 N No x No Precipitation 10/20/2013 10:25 AM 10/20/2013 10:25 AM x x x x x 0.04 Unknown
06/24/2022 07:11 AM 59.54 15.08 104.90 66.74 10.0 x 3.36 N 3.13 N 4.03 N No x No Precipitation 10/20/2013 10:25 AM 10/20/2013 10:25 AM x x x x x 0.04 Unknown
06/24/2022 07:12 AM 59.54 15.26 104.90 66.74 10.0 x 3.36 NE 3.13 NE 4.03 N No x No Precipitation 10/20/2013 10:25 AM 10/20/2013 10:25 AM x x x x x 0.04 Unknown
06/24/2022 07:13 AM 59.72 15.44 104.90 66.74 10.0 x 3.13 NE 2.68 NE 4.03 N No x No Precipitation 10/20/2013 10:25 AM 10/20/2013 10:25 AM x x x x x 0.04 Unknown
06/24/2022 07:14 AM 59.72 15.44 104.90 66.74 10.0 x 2.68 NE 2.01 NE 4.03 N No x No Precipitation 10/20/2013 10:25 AM 10/20/2013 10:25 AM x x x x x 0.04 Unknown
06/24/2022 07:15 AM 59.90 15.62 104.90 66.74 10.0 x 2.46 NE 2.91 N 4.03 N No x No Precipitation 10/20/2013 10:25 AM 10/20/2013 10:25 AM x x x x x 0.04 Unknown
06/24/2022 07:16 AM 59.90 15.62 104.90 66.74 10.0 x 3.13 NE 4.03 NE 4.03 N No x No Precipitation 10/20/2013 10:25 AM 10/20/2013 10:25 AM x x x x x 0.04 Unknown
06/24/2022 07:17 AM 59.90 15.80 104.90 66.74 10.0 x 3.36 NE 2.91 NE 4.03 N No x No Precipitation 10/20/2013 10:25 AM 10/20/2013 10:25 AM x x x x x 0.04 Unknown
06/24/2022 07:18 AM 60.08 15.80 104.90 66.74 10.0 x 3.13 N 2.46 N 4.03 N No x No Precipitation 10/20/2013 10:25 AM 10/20/2013 10:25 AM x x x x x 0.04 Unknown
06/24/2022 07:19 AM 60.08 15.98 104.90 66.74 10.0 x 2.68 N 3.36 NE 4.03 N No x No Precipitation 10/20/2013 10:25 AM 10/20/2013 10:25 AM x x x x x 0.04 Unknown
06/24/2022 07:20 AM 60.26 16.16 104.90 66.74 10.0 x 2.91 NE 3.58 NE 4.03 N No x No Precipitation 10/20/2013 10:25 AM 10/20/2013 10:25 AM x x x x x 0.04 Unknown
06/24/2022 07:21 AM 60.26 16.16 104.90 66.74 10.0 x 3.13 NE 2.24 NE 4.03 N No x No Precipitation 10/20/2013 10:25 AM 10/20/2013 10:25 AM x x x x x 0.04 Unknown
06/24/2022 07:22 AM 60.44 16.34 104.90 66.74 10.0 x 2.91 NE 2.68 N 4.03 N No x No Precipitation 10/20/2013 10:25 AM 10/20/2013 10:25 AM x x x x x 0.04 Unknown
06/24/2022 07:23 AM 60.44 16.52 104.90 66.74 10.0 x 2.68 NE 2.46 N 4.03 N No x No Precipitation 10/20/2013 10:25 AM 10/20/2013 10:25 AM x x x x x 0.04 Unknown
06/24/2022 07:24 AM 60.62 16.52 104.90 66.74 10.0 x 2.24 N 2.24 N 4.03 N No x No Precipitation 10/20/2013 10:25 AM 10/20/2013 10:25 AM x x x x x 0.04 Unknown
06/24/2022 07:25 AM 60.80 16.70 104.90 66.74 10.0 x 2.46 NE 3.58 NE 4.03 NE No x No Precipitation 10/20/2013 10:25 AM 10/20/2013 10:25 AM x x x x x 0.04 Unknown
06/24/2022 07:26 AM 60.80 16.88 104.90 66.74 10.0 x 3.13 NE 3.80 NE 4.03 NE No x No Precipitation 10/20/2013 10:25 AM 10/20/2013 10:25 AM x x x x x 0.04 Unknown
06/24/2022 07:27 AM 60.98 17.06 104.90 66.74 10.0 x 3.58 NE 3.36 NE 4.25 NE No x No Precipitation 10/20/2013 10:25 AM 10/20/2013 10:25 AM x x x x x 0.04 Unknown
06/24/2022 07:28 AM 61.16 17.24 104.90 66.74 10.0 x 3.58 N 3.58 N 4.25 NE No x No Precipitation 10/20/2013 10:25 AM 10/20/2013 10:25 AM x x x x x 0.04 Unknown
06/24/2022 07:29 AM 61.34 17.42 104.90 66.74 10.0 x 3.36 N 3.80 N 4.25 NE No x No Precipitation 10/20/2013 10:25 AM 10/20/2013 10:25 AM x x x x x 0.04 Unknown
06/24/2022 07:30 AM 61.34 17.60 104.90 66.74 10.0 x 3.36 N 2.91 NE 4.25 NE No x No Precipitation 10/20/2013 10:25 AM 10/20/2013 10:25 AM x x x x x 0.04 Unknown
06/24/2022 07:31 AM 61.52 17.78 104.90 66.74 10.0 x 2.91 N 3.36 N 4.25 NE No x No Precipitation 10/20/2013 10:25 AM 10/20/2013 10:25 AM x x x x x 0.04 Unknown
06/24/2022 07:32 AM 61.70 17.96 104.90 66.74 10.0 x 2.91 N 3.36 N 4.25 N No x No Precipitation 10/20/2013 10:25 AM 10/20/2013 10:25 AM x x x x x 0.04 Unknown
06/24/2022 07:33 AM 61.88 18.14 104.90 66.74 10.0 x 3.13 N 2.91 N 4.25 N No x No Precipitation 10/20/2013 10:25 AM 10/20/2013 10:25 AM x x x x x 0.04 Unknown
06/24/2022 07:34 AM 62.06 18.32 104.90 66.74 10.0 x 3.36 N 4.47 N 4.70 N No x No Precipitation 10/20/2013 10:25 AM 10/20/2013 10:25 AM x x x x x 0.04 Unknown
06/24/2022 07:35 AM 62.06 18.50 104.90 66.74 10.0 x 4.03 N 4.70 N 4.92 N No x No Precipitation 10/20/2013 10:25 AM 10/20/2013 10:25 AM x x x x x 0.04 Unknown
06/24/2022 07:36 AM 62.24 18.68 104.90 66.74 10.0 x 4.25 N 4.25 N 4.92 N No x No Precipitation 10/20/2013 10:25 AM 10/20/2013 10:25 AM x x x x x 0.04 Unknown
06/24/2022 07:37 AM 62.24 18.68 104.90 66.74 10.0 x 4.03 N 4.70 N 4.92 N No x No Precipitation 10/20/2013 10:25 AM 10/20/2013 10:25 AM x x x x x 0.04 Unknown
06/24/2022 07:38 AM 62.42 19.04 104.90 66.74 10.0 x 4.03 N 4.47 N 4.92 N No x No Precipitation 10/20/2013 10:25 AM 10/20/2013 10:25 AM x x x x x 0.04 Unknown
06/24/2022 07:39 AM 62.42 19.04 104.90 66.74 10.0 x 4.25 N 3.58 N 4.92 N No x No Precipitation 10/20/2013 10:25 AM 10/20/2013 10:25 AM x x x x x 0.04 Unknown
06/24/2022 07:40 AM 62.42 19.04 104.90 66.74 10.0 x 3.80 N 3.80 N 4.92 N No x No Precipitation 10/20/2013 10:25 AM 10/20/2013 10:25 AM x x x x x 0.04 Unknown
06/24/2022 07:41 AM 62.42 19.04 104.90 66.74 10.0 x 3.58 N 3.36 N 4.92 N No x No Precipitation 10/20/2013 10:25 AM 10/20/2013 10:25 AM x x x x x 0.04 Unknown
06/24/2022 07:42 AM 62.60 19.22 104.90 66.74 10.0 x 3.80 N 2.91 N 4.92 N No x No Precipitation 10/20/2013 10:25 AM 10/20/2013 10:25 AM x x x x x 0.04 Unknown
06/24/2022 07:43 AM 62.60 19.40 104.90 66.74 10.0 x 3.36 N 2.68 NE 4.92 N No x No Precipitation 10/20/2013 10:25 AM 10/20/2013 10:25 AM x x x x x 0.04 Unknown
06/24/2022 07:44 AM 62.78 19.40 104.90 66.74 10.0 x 2.91 NE 2.91 N 4.92 N No x No Precipitation 10/20/2013 10:25 AM 10/20/2013 10:25 AM x x x x x 0.04 Unknown
06/24/2022 07:45 AM 62.78 19.58 104.90 66.74 10.0 x 2.68 N 2.46 N 4.92 N No x No Precipitation 10/20/2013 10:25 AM 10/20/2013 10:25 AM x x x x x 0.04 Unknown
06/24/2022 07:46 AM 62.96 19.76 104.90 66.74 10.0 x 2.24 N 1.34 NE 4.92 N No x No Precipitation 10/20/2013 10:25 AM 10/20/2013 10:25 AM x x x x x 0.04 Unknown
06/24/2022 07:47 AM 62.96 19.76 104.90 66.74 10.0 x 1.79 N 2.68 N 4.92 N No x No Precipitation 10/20/2013 10:25 AM 10/20/2013 10:25 AM x x x x x 0.04 Unknown
06/24/2022 07:48 AM 63.14 20.12 104.90 66.74 10.0 x 2.01 NE 3.13 NE 4.25 N No x No Precipitation 10/20/2013 10:25 AM 10/20/2013 10:25 AM x x x x x 0.04 Unknown
06/24/2022 07:49 AM 63.32 20.12 104.90 66.74 10.0 x 2.46 NE 1.57 NE 4.25 N No x No Precipitation 10/20/2013 10:25 AM 10/20/2013 10:25 AM x x x x x 0.04 Unknown
06/24/2022 07:50 AM 63.32 20.30 104.90 66.74 10.0 x 2.24 N 1.79 N 4.25 N No x No Precipitation 10/20/2013 10:25 AM 10/20/2013 10:25 AM x x x x x 0.04 Unknown
06/24/2022 07:51 AM 63.50 20.48 104.90 66.74 10.0 x 1.79 NE 2.01 N 4.25 N No x No Precipitation 10/20/2013 10:25 AM 10/20/2013 10:25 AM x x x x x 0.04 Unknown
06/24/2022 07:52 AM 63.68 20.66 104.90 66.74 10.0 x 1.79 N 1.57 NE 3.36 N No x No Precipitation 10/20/2013 10:25 AM 10/20/2013 10:25 AM x x x x x 0.04 Unknown
06/24/2022 07:53 AM 63.68 20.66 104.90 66.74 10.0 x 1.79 NE 1.79 NE 3.36 N No x No Precipitation 10/20/2013 10:25 AM 10/20/2013 10:25 AM x x x x x 0.04 Unknown
06/24/2022 07:54 AM 63.86 21.02 104.90 66.74 10.0 x 1.79 N 0.89 N 3.36 N No x No Precipitation 10/20/2013 10:25 AM 10/20/2013 10:25 AM x x x x x 0.04 Unknown
06/24/2022 07:55 AM 64.04 21.20 104.90 66.74 10.0 x 1.79 N 2.46 N 3.36 N No x No Precipitation 10/20/2013 10:25 AM 10/20/2013 10:25 AM x x x x x 0.04 Unknown
06/24/2022 07:56 AM 64.22 21.38 104.90 66.74 10.0 x 2.01 N 2.01 N 3.36 N No x No Precipitation 10/20/2013 10:25 AM 10/20/2013 10:25 AM x x x x x 0.04 Unknown
06/24/2022 07:57 AM 64.22 21.56 104.90 66.74 10.0 x 2.24 N 2.91 N 3.36 N No x No Precipitation 10/20/2013 10:25 AM 10/20/2013 10:25 AM x x x x x 0.04 Unknown
06/24/2022 07:58 AM 64.40 21.74 104.90 66.74 10.0 x 2.46 N 2.68 NE 2.91 N No x No Precipitation 10/20/2013 10:25 AM 10/20/2013 10:25 AM x x x x x 0.04 Unknown
06/24/2022 07:59 AM 64.58 21.92 104.90 66.74 10.0 x 2.46 N 2.68 N 3.58 NE No x No Precipitation 10/20/2013 10:25 AM 10/20/2013 10:25 AM x x x x x 0.04 Unknown
06/24/2022 08:00 AM 64.76 22.10 104.90 66.74 10.0 x 2.46 N 1.57 N 3.58 NE No x No Precipitation 10/20/2013 10:25 AM 10/20/2013 10:25 AM x x x x x 0.04 Unknown
06/24/2022 08:01 AM 64.76 22.28 104.90 66.74 10.0 x 1.79 N 0.45 S 3.58 NE No x No Precipitation 10/20/2013 10:25 AM 10/20/2013 10:25 AM x x x x x 0.04 Unknown
06/24/2022 08:02 AM 64.94 22.46 104.90 66.74 10.0 x 0.89 N 0.45 NE 3.58 NE No x No Precipitation 10/20/2013 10:25 AM 10/20/2013 10:25 AM x x x x x 0.04 Unknown
06/24/2022 08:03 AM 65.12 22.64 104.90 66.74 10.0 x 0.67 NE 1.57 NE 3.58 NE No x No Precipitation 10/20/2013 10:25 AM 10/20/2013 10:25 AM x x x x x 0.04 Unknown
06/24/2022 08:04 AM 65.12 22.82 104.90 66.74 10.0 x 1.34 N 1.57 N 3.58 NE No x No Precipitation 10/20/2013 10:25 AM 10/20/2013 10:25 AM x x x x x 0.04 Unknown
06/24/2022 08:05 AM 65.30 23.00 104.90 66.74 10.0 x 1.79 N 1.34 E 3.58 NE No x No Precipitation 10/20/2013 10:25 AM 10/20/2013 10:25 AM x x x x x 0.04 Unknown
06/24/2022 08:06 AM 65.48 23.36 104.90 66.74 10.0 x 2.01 E 0.89 NW 3.58 NE No x No Precipitation 10/20/2013 10:25 AM 10/20/2013 10:25 AM x x x x x 0.04 Unknown
06/24/2022 08:07 AM 65.48 23.36 104.90 66.74 10.0 x 2.01 N 1.79 N 3.58 NE No x No Precipitation 10/20/2013 10:25 AM 10/20/2013 10:25 AM x x x x x 0.04 Unknown
06/24/2022 08:08 AM 65.66 23.54 104.90 66.74 10.0 x 2.01 N 2.01 N 3.58 NE No x No Precipitation 10/20/2013 10:25 AM 10/20/2013 10:25 AM x x x x x 0.04 Unknown
06/24/2022 08:09 AM 65.66 23.72 104.90 66.74 10.0 x 1.79 N 0.89 NE 3.58 SW No x No Precipitation 10/20/2013 10:25 AM 10/20/2013 10:25 AM x x x x x 0.03 Unknown
06/24/2022 08:10 AM 65.84 23.90 104.90 66.74 10.0 x 1.12 N 2.46 S 3.58 SW No x No Precipitation 10/20/2013 10:25 AM 10/20/2013 10:25 AM x x x x x 0.03 Unknown
06/24/2022 08:11 AM 66.02 23.90 104.90 66.74 10.0 x 1.34 NE 1.12 E 3.58 SW No x No Precipitation 10/20/2013 10:25 AM 10/20/2013 10:25 AM x x x x x 0.04 Unknown
06/24/2022 08:12 AM 66.02 24.08 104.90 66.74 10.0 x 1.34 NE 2.46 NE 3.58 SW No x No Precipitation 10/20/2013 10:25 AM 10/20/2013 10:25 AM x x x x x 0.04 Unknown
06/24/2022 08:13 AM 66.20 24.26 104.90 66.74 10.0 x 1.34 NE 1.79 E 3.58 SW No x No Precipitation 10/20/2013 10:25 AM 10/20/2013 10:25 AM x x x x x 0.03 Unknown
06/24/2022 08:14 AM 66.20 24.26 104.90 66.74 10.0 x 1.79 E 2.46 SE 3.58 SW No x No Precipitation 10/20/2013 10:25 AM 10/20/2013 10:25 AM x x x x x 0.04 Unknown
06/24/2022 08:15 AM 66.20 24.26 104.90 66.74 10.0 x 2.24 E 3.13 NE 3.13 NE No x No Precipitation 10/20/2013 10:25 AM 10/20/2013 10:25 AM x x x x x 0.04 Unknown
06/24/2022 08:16 AM 66.20 24.26 104.90 66.74 10.0 x 2.24 NE 0.67 N 3.13 NE No x No Precipitation 10/20/2013 10:25 AM 10/20/2013 10:25 AM x x x x x 0.04 Unknown
06/24/2022 08:17 AM 66.20 24.26 104.90 66.74 10.0 x 1.79 NE 1.12 N 3.13 NE No x No Precipitation 10/20/2013 10:25 AM 10/20/2013 10:25 AM x x x x x 0.04 Unknown
06/24/2022 08:18 AM 66.20 24.44 104.90 66.74 10.0 x 1.34 NE 1.79 NE 3.13 NE No x No Precipitation 10/20/2013 10:25 AM 10/20/2013 10:25 AM x x x x x 0.04 Unknown
06/24/2022 08:19 AM 66.20 24.44 104.90 66.74 10.0 x 1.12 NE 0.89 S 3.13 NE No x No Precipitation 10/20/2013 10:25 AM 10/20/2013 10:25 AM x x x x x 0.04 Unknown
06/24/2022 08:20 AM 66.38 24.62 104.90 66.74 10.0 x 0.89 NW 0.00 W 3.13 NE No x No Precipitation 10/20/2013 10:25 AM 10/20/2013 10:25 AM x x x x x 0.04 Unknown
06/24/2022 08:21 AM 66.56 24.80 104.90 66.74 10.0 x 1.12 NW 1.34 S 3.13 NE No x No Precipitation 10/20/2013 10:25 AM 10/20/2013 10:25 AM x x x x x 0.04 Unknown
06/24/2022 08:22 AM 66.56 24.98 104.90 66.74 10.0 x 1.12 N 1.34 NE 3.13 NE No x No Precipitation 10/20/2013 10:25 AM 10/20/2013 10:25 AM x x x x x 0.04 Unknown
06/24/2022 08:23 AM 66.74 24.98 104.90 66.74 10.0 x 0.89 N 0.00 N 3.13 NE No x No Precipitation 10/20/2013 10:25 AM 10/20/2013 10:25 AM x x x x x 0.03 Unknown
06/24/2022 08:24 AM 66.74 25.16 104.90 66.74 10.0 x 1.12 NE 1.57 SE 3.13 NE No x No Precipitation 10/20/2013 10:25 AM 10/20/2013 10:25 AM x x x x x 0.04 Unknown
06/24/2022 08:25 AM 66.92 25.34 104.90 66.74 10.0 x 1.57 SE 1.34 E 3.13 NE No x No Precipitation 10/20/2013 10:25 AM 10/20/2013 10:25 AM x x x x x 0.04 Unknown
06/24/2022 08:26 AM 66.92 25.34 104.90 66.74 10.0 x 1.57 SE 2.01 SE 2.68 SE No x No Precipitation 10/20/2013 10:25 AM 10/20/2013 10:25 AM x x x x x 0.04 Unknown
06/24/2022 08:27 AM 66.92 25.34 104.90 66.74 10.0 x 2.24 S 2.46 S 3.80 S No x No Precipitation 10/20/2013 10:25 AM 10/20/2013 10:25 AM x x x x x 0.04 Unknown
06/24/2022 08:28 AM 66.92 25.34 104.90 66.74 10.0 x 3.80 S 5.82 S 7.83 S No x No Precipitation 10/20/2013 10:25 AM 10/20/2013 10:25 AM x x x x x 0.03 Unknown
06/24/2022 08:29 AM 66.92 25.34 104.90 66.74 10.0 x 4.47 S 2.24 S 7.83 S No x No Precipitation 10/20/2013 10:25 AM 10/20/2013 10:25 AM x x x x x 0.03 Unknown
06/24/2022 08:30 AM 66.92 25.34 104.90 66.74 10.0 x 3.36 S 3.36 S 7.83 S No x No Precipitation 10/20/2013 10:25 AM 10/20/2013 10:25 AM x x x x x 0.03 Unknown
06/24/2022 08:31 AM 66.74 25.34 104.90 66.74 10.0 x 2.91 S 3.58 S 7.83 S No x No Precipitation 10/20/2013 10:25 AM 10/20/2013 10:25 AM x x x x x 0.03 Unknown
06/24/2022 08:32 AM 66.92 25.34 104.90 66.74 10.0 x 2.91 S 2.01 SE 7.83 S No x No Precipitation 10/20/2013 10:25 AM 10/20/2013 10:25 AM x x x x x 0.03 Unknown
06/24/2022 08:33 AM 66.92 25.34 104.90 66.74 10.0 x 2.68 S 1.79 SE 7.83 S No x No Precipitation 10/20/2013 10:25 AM 10/20/2013 10:25 AM x x x x x 0.04 Unknown
06/24/2022 08:34 AM 66.92 25.52 104.90 66.74 10.0 x 2.24 SE 1.79 SE 7.83 S No x No Precipitation 10/20/2013 10:25 AM 10/20/2013 10:25 AM x x x x x 0.04 Unknown
06/24/2022 08:36 AM 67.10 25.88 104.90 66.74 10.0 x 3.13 S 2.68 SW 7.83 S No x No Precipitation 10/20/2013 10:25 AM 10/20/2013 10:25 AM x x x x x 0.04 Unknown
06/24/2022 08:37 AM 67.28 25.88 104.90 66.74 10.0 x 3.58 S 3.13 SW 6.26 S No x No Precipitation 10/20/2013 10:25 AM 10/20/2013 10:25 AM x x x x x 0.03 Unknown
06/24/2022 08:38 AM 67.28 25.88 104.90 66.74 10.0 x 2.68 SW 2.24 SW 5.59 S No x No Precipitation 10/20/2013 10:25 AM 10/20/2013 10:25 AM x x x x x 0.03 Unknown
06/24/2022 08:39 AM 67.46 26.06 104.90 66.74 10.0 x 2.46 SW 2.91 S 5.59 S No x No Precipitation 10/20/2013 10:25 AM 10/20/2013 10:25 AM x x x x x 0.04 Unknown
06/24/2022 08:40 AM 67.46 26.06 104.90 66.74 10.0 x 2.46 S 4.70 SW 5.59 S No x No Precipitation 10/20/2013 10:25 AM 10/20/2013 10:25 AM x x x x x 0.03 Unknown
06/24/2022 08:41 AM 67.46 26.24 104.90 66.74 10.0 x 2.46 SW 1.79 SW 5.37 S No x No Precipitation 10/20/2013 10:25 AM 10/20/2013 10:25 AM x x x x x 0.04 Unknown
06/24/2022 08:42 AM 67.46 26.24 104.90 66.74 10.0 x 2.24 SW 2.01 SW 5.37 S No x No Precipitation 10/20/2013 10:25 AM 10/20/2013 10:25 AM x x x x x 0.04 Unknown
06/24/2022 08:43 AM 67.46 26.24 104.90 66.74 10.0 x 2.24 SW 2.24 SW 5.37 S No x No Precipitation 10/20/2013 10:25 AM 10/20/2013 10:25 AM x x x x x 0.03 Unknown
06/24/2022 08:44 AM 67.64 26.42 104.90 66.74 10.0 x 2.01 SW 3.58 S 5.37 S No x No Precipitation 10/20/2013 10:25 AM 10/20/2013 10:25 AM x x x x x 0.03 Unknown
06/24/2022 08:45 AM 67.64 26.60 104.90 66.74 10.0 x 2.24 SW 2.46 SW 5.37 S No x No Precipitation 10/20/2013 10:25 AM 10/20/2013 10:25 AM x x x x x 0.04 Unknown
06/24/2022 08:46 AM 67.64 26.60 104.90 66.74 10.0 x 2.91 S 3.80 SE 5.14 S No x No Precipitation 10/20/2013 10:25 AM 10/20/2013 10:25 AM x x x x x 0.04 Unknown
06/24/2022 08:47 AM 67.64 26.42 104.90 66.74 10.0 x 3.13 S 2.46 S 4.92 S No x No Precipitation 10/20/2013 10:25 AM 10/20/2013 10:25 AM x x x x x 0.03 Unknown
06/24/2022 08:48 AM 67.64 26.42 104.90 66.74 10.0 x 3.58 S 4.25 SE 5.59 S No x No Precipitation 10/20/2013 10:25 AM 10/20/2013 10:25 AM x x x x x 0.03 Unknown
06/24/2022 08:49 AM 67.64 26.42 104.90 66.74 10.0 x 3.80 S 3.13 S 5.59 S No x No Precipitation 10/20/2013 10:25 AM 10/20/2013 10:25 AM x x x x x 0.03 Unknown
06/24/2022 08:50 AM 67.46 26.24 104.90 66.74 10.0 x 3.36 S 2.68 SW 5.59 S No x No Precipitation 10/20/2013 10:25 AM 10/20/2013 10:25 AM x x x x x 0.03 Unknown
06/24/2022 08:51 AM 67.46 26.24 104.90 66.74 10.0 x 2.68 S 3.58 SE 5.59 S No x No Precipitation 10/20/2013 10:25 AM 10/20/2013 10:25 AM x x x x x 0.04 Unknown
06/24/2022 08:52 AM 67.46 26.24 104.90 66.74 10.0 x 2.91 S 3.58 SE 5.59 S No x No Precipitation 10/20/2013 10:25 AM 10/20/2013 10:25 AM x x x x x 0.03 Unknown
06/24/2022 08:53 AM 67.46 26.24 104.90 66.74 10.0 x 3.13 SE 3.13 S 5.59 S No x No Precipitation 10/20/2013 10:25 AM 10/20/2013 10:25 AM x x x x x 0.04 Unknown
06/24/2022 08:54 AM 67.46 26.06 104.90 66.74 10.0 x 2.91 SE 2.24 S 5.59 S No x No Precipitation 10/20/2013 10:25 AM 10/20/2013 10:25 AM x x x x x 0.04 Unknown
06/24/2022 08:55 AM 67.46 26.06 104.90 66.74 10.0 x 2.91 SE 2.24 SE 5.59 S No x No Precipitation 10/20/2013 10:25 AM 10/20/2013 10:25 AM x x x x x 0.04 Unknown
06/24/2022 08:56 AM 67.46 26.24 104.90 66.74 10.0 x 2.68 S 2.91 S 5.59 S No x No Precipitation 10/20/2013 10:25 AM 10/20/2013 10:25 AM x x x x x 0.04 Unknown
06/24/2022 08:57 AM 67.46 26.06 104.90 66.74 10.0 x 2.91 SE 3.13 S 5.59 S No x No Precipitation 10/20/2013 10:25 AM 10/20/2013 10:25 AM x x x x x 0.03 Unknown
06/24/2022 08:58 AM 67.46 26.06 104.90 66.74 10.0 x 3.13 S 3.36 S 5.59 S No x No Precipitation 10/20/2013 10:25 AM 10/20/2013 10:25 AM x x x x x 0.03 Unknown
06/24/2022 08:59 AM 67.46 26.24 104.90 66.74 10.0 x 3.58 S 4.25 S 6.49 S No x No Precipitation 10/20/2013 10:25 AM 10/20/2013 10:25 AM x x x x x 0.04 Unknown
06/24/2022 09:00 AM 67.46 26.42 104.90 66.74 10.0 x 3.58 S 1.79 SW 6.49 S No x No Precipitation 10/20/2013 10:25 AM 10/20/2013 10:25 AM x x x x x 0.04 Unknown
06/24/2022 09:01 AM 67.64 26.60 104.90 66.74 10.0 x 2.46 S 2.68 S 6.49 S No x No Precipitation 10/20/2013 10:25 AM 10/20/2013 10:25 AM x x x x x 0.04 Unknown
06/24/2022 09:02 AM 67.82 26.60 104.90 66.74 10.0 x 2.46 S 3.36 S 6.49 S No x No Precipitation 10/20/2013 10:25 AM 10/20/2013 10:25 AM x x x x x 0.03 Unknown
06/24/2022 09:03 AM 67.82 26.78 104.90 66.74 10.0 x 3.36 S 1.79 SE 6.49 S No x No Precipitation 10/20/2013 10:25 AM 10/20/2013 10:25 AM x x x x x 0.04 Unknown
06/24/2022 09:04 AM 68.00 26.78 104.90 66.74 10.0 x 3.13 S 3.58 S 6.49 S No x No Precipitation 10/20/2013 10:25 AM 10/20/2013 10:25 AM x x x x x 0.03 Unknown
06/24/2022 09:05 AM 68.00 26.96 104.90 66.74 10.0 x 3.36 SE 3.36 S 6.49 S No x No Precipitation 10/20/2013 10:25 AM 10/20/2013 10:25 AM x x x x x 0.04 Unknown
06/24/2022 09:06 AM 68.00 26.96 104.90 66.74 10.0 x 2.91 S 1.79 S 6.49 S No x No Precipitation 10/20/2013 10:25 AM 10/20/2013 10:25 AM x x x x x 0.04 Unknown
06/24/2022 09:07 AM 68.00 27.14 104.90 66.74 10.0 x 2.24 S 2.24 SE 6.49 S No x No Precipitation 10/20/2013 10:25 AM 10/20/2013 10:25 AM x x x x x 0.03 Unknown
06/24/2022 09:08 AM 68.18 27.32 104.90 66.74 10.0 x 2.46 S 2.24 S 6.49 S No x No Precipitation 10/20/2013 10:25 AM 10/20/2013 10:25 AM x x x x x 0.04 Unknown
06/24/2022 09:09 AM 68.18 27.32 104.90 66.74 10.0 x 3.36 S 4.47 S 6.04 SW No x No Precipitation 10/20/2013 10:25 AM 10/20/2013 10:25 AM x x x x x 0.03 Unknown
06/24/2022 09:10 AM 68.36 27.50 104.90 66.74 10.0 x 3.80 S 2.91 SE 6.04 SW No x No Precipitation 10/20/2013 10:25 AM 10/20/2013 10:25 AM x x x x x 0.03 Unknown
06/24/2022 09:11 AM 68.36 27.50 104.90 66.74 10.0 x 3.58 S 1.57 SE 6.04 SW No x No Precipitation 10/20/2013 10:25 AM 10/20/2013 10:25 AM x x x x x 0.04 Unknown
06/24/2022 09:12 AM 68.36 27.50 104.90 66.74 10.0 x 2.46 S 1.79 SE 6.04 SW No x No Precipitation 10/20/2013 10:25 AM 10/20/2013 10:25 AM x x x x x 0.03 Unknown
06/24/2022 09:13 AM 68.36 27.50 104.90 66.74 10.0 x 1.57 S 3.80 S 6.04 SW No x No Precipitation 10/20/2013 10:25 AM 10/20/2013 10:25 AM x x x x x 0.03 Unknown
06/24/2022 09:14 AM 68.54 27.68 104.90 66.74 10.0 x 1.79 SE 1.79 SW 6.04 SW No x No Precipitation 10/20/2013 10:25 AM 10/20/2013 10:25 AM x x x x x 0.03 Unknown
06/24/2022 09:15 AM 68.54 27.86 104.90 66.74 10.0 x 2.01 SW 3.58 SW 6.04 SW No x No Precipitation 10/20/2013 10:25 AM 10/20/2013 10:25 AM x x x x x 0.03 Unknown
06/24/2022 09:16 AM 68.54 27.86 104.90 66.74 10.0 x 3.36 SW 2.68 SE 6.04 SW No x No Precipitation 10/20/2013 10:25 AM 10/20/2013 10:25 AM x x x x x 0.04 Unknown
06/24/2022 09:17 AM 68.54 27.86 104.90 66.74 10.0 x 3.58 S 5.82 SE 6.04 SW No x No Precipitation 10/20/2013 10:25 AM 10/20/2013 10:25 AM x x x x x 0.03 Unknown
06/24/2022 09:18 AM 68.54 27.86 104.90 66.74 10.0 x 2.46 S 2.46 W 6.04 SW No x No Precipitation 10/20/2013 10:25 AM 10/20/2013 10:25 AM x x x x x 0.04 Unknown
06/24/2022 09:19 AM 68.72 28.04 104.90 66.74 10.0 x 2.68 SW 2.01 W 5.82 S No x No Precipitation 10/20/2013 10:25 AM 10/20/2013 10:25 AM x x x x x 0.04 Unknown
06/24/2022 09:20 AM 68.72 28.04 104.90 66.74 10.0 x 2.91 SW 3.13 SW 5.82 S No x No Precipitation 10/20/2013 10:25 AM 10/20/2013 10:25 AM x x x x x 0.04 Unknown
06/24/2022 09:21 AM 68.72 28.04 104.90 66.74 10.0 x 2.68 SW 1.79 SW 5.82 S No x No Precipitation 10/20/2013 10:25 AM 10/20/2013 10:25 AM x x x x x 0.03 Unknown
06/24/2022 09:22 AM 68.90 28.22 104.90 66.74 10.0 x 2.24 SW 2.01 SW 5.82 S No x No Precipitation 10/20/2013 10:25 AM 10/20/2013 10:25 AM x x x x x 0.04 Unknown
06/24/2022 09:23 AM 68.90 28.40 104.90 66.74 10.0 x 2.24 S 1.79 W 5.82 S No x No Precipitation 10/20/2013 10:25 AM 10/20/2013 10:25 AM x x x x x 0.03 Unknown
06/24/2022 09:24 AM 69.08 28.58 104.90 66.74 10.0 x 2.24 SW 1.79 SW 5.82 S No x No Precipitation 10/20/2013 10:25 AM 10/20/2013 10:25 AM x x x x x 0.04 Unknown
06/24/2022 09:25 AM 69.08 28.76 104.90 66.74 10.0 x 2.24 SW 2.01 SW 5.82 S No x No Precipitation 10/20/2013 10:25 AM 10/20/2013 10:25 AM x x x x x 0.04 Unknown
06/24/2022 09:26 AM 69.26 28.76 104.90 66.74 10.0 x 2.46 SW 3.58 S 5.82 SW No x No Precipitation 10/20/2013 10:25 AM 10/20/2013 10:25 AM x x x x x 0.04 Unknown
06/24/2022 09:27 AM 69.44 28.94 104.90 66.74 10.0 x 2.24 SW 1.34 SW 4.25 SW No x No Precipitation 10/20/2013 10:25 AM 10/20/2013 10:25 AM x x x x x 0.04 Unknown
06/24/2022 09:28 AM 69.44 29.12 104.90 66.74 10.0 x 2.01 SW 1.34 SW 3.80 S No x No Precipitation 10/20/2013 10:25 AM 10/20/2013 10:25 AM x x x x x 0.04 Unknown
06/24/2022 09:29 AM 69.44 29.30 104.90 66.74 10.0 x 1.57 SW 2.24 S 3.80 S No x No Precipitation 10/20/2013 10:25 AM 10/20/2013 10:25 AM x x x x x 0.03 Unknown
06/24/2022 09:30 AM 69.62 29.48 104.90 66.74 10.0 x 1.79 S 3.80 SW 3.80 SW No x No Precipitation 10/20/2013 10:25 AM 10/20/2013 10:25 AM x x x x x 0.03 Unknown
06/24/2022 09:31 AM 69.62 29.48 104.90 66.74 10.0 x 2.68 SW 4.03 S 4.92 S No x No Precipitation 10/20/2013 10:25 AM 10/20/2013 10:25 AM x x x x x 0.03 Unknown
06/24/2022 09:32 AM 69.44 29.30 104.90 66.74 10.0 x 3.80 SW 3.58 S 5.82 S No x No Precipitation 10/20/2013 10:25 AM 10/20/2013 10:25 AM x x x x x 0.03 Unknown
06/24/2022 09:33 AM 69.62 29.48 104.90 66.74 10.0 x 3.80 S 4.25 S 5.82 S No x No Precipitation 10/20/2013 10:25 AM 10/20/2013 10:25 AM x x x x x 0.04 Unknown
06/24/2022 09:34 AM 69.62 29.48 104.90 66.74 10.0 x 4.03 S 3.36 S 6.26 S No x No Precipitation 10/20/2013 10:25 AM 10/20/2013 10:25 AM x x x x x 0.04 Unknown
06/24/2022 09:35 AM 69.44 29.30 104.90 66.74 10.0 x 4.25 S 3.36 SW 6.26 S No x No Precipitation 10/20/2013 10:25 AM 10/20/2013 10:25 AM x x x x x 0.03 Unknown
06/24/2022 09:36 AM 69.62 29.48 104.90 66.74 10.0 x 4.03 S 3.58 S 7.61 S No x No Precipitation 10/20/2013 10:25 AM 10/20/2013 10:25 AM x x x x x 0.03 Unknown
06/24/2022 09:37 AM 69.62 29.48 104.90 66.74 10.0 x 3.58 S 1.34 SE 7.61 S No x No Precipitation 10/20/2013 10:25 AM 10/20/2013 10:25 AM x x x x x 0.04 Unknown
06/24/2022 09:38 AM 69.62 29.48 104.90 66.74 10.0 x 2.46 S 2.46 S 7.61 S No x No Precipitation 10/20/2013 10:25 AM 10/20/2013 10:25 AM x x x x x 0.03 Unknown
06/24/2022 09:39 AM 69.62 29.66 104.90 66.74 10.0 x 2.46 S 4.25 S 7.61 S No x No Precipitation 10/20/2013 10:25 AM 10/20/2013 10:25 AM x x x x x 0.04 Unknown
06/24/2022 09:40 AM 69.80 29.66 104.90 66.74 10.0 x 2.46 SW 0.45 S 7.61 S No x No Precipitation 10/20/2013 10:25 AM 10/20/2013 10:25 AM x x x x x 0.03 Unknown
06/24/2022 09:41 AM 69.80 29.84 104.90 66.74 10.0 x 2.01 S 1.79 S 7.61 S No x No Precipitation 10/20/2013 10:25 AM 10/20/2013 10:25 AM x x x x x 0.03 Unknown
06/24/2022 09:42 AM 69.98 29.84 104.90 66.74 10.0 x 1.34 SE 0.45 SW 7.61 S No x No Precipitation 10/20/2013 10:25 AM 10/20/2013 10:25 AM x x x x x 0.04 Unknown
06/24/2022 09:43 AM 69.98 29.84 104.90 66.74 10.0 x 1.79 S 2.24 S 7.61 S No x No Precipitation 10/20/2013 10:25 AM 10/20/2013 10:25 AM x x x x x 0.04 Unknown
06/24/2022 09:44 AM 69.98 30.02 104.90 66.74 10.0 x 2.68 SW 3.36 S 7.61 S No x No Precipitation 10/20/2013 10:25 AM 10/20/2013 10:25 AM x x x x x 0.03 Unknown
06/24/2022 09:45 AM 69.98 30.02 104.90 66.74 10.0 x 2.91 SW 3.36 SW 7.61 S No x No Precipitation 10/20/2013 10:25 AM 10/20/2013 10:25 AM x x x x x 0.04 Unknown
06/24/2022 09:46 AM 70.16 30.20 104.90 66.74 10.0 x 2.91 SW 3.13 SW 5.14 S No x No Precipitation 10/20/2013 10:25 AM 10/20/2013 10:25 AM x x x x x 0.03 Unknown
06/24/2022 09:47 AM 70.34 30.56 104.90 66.74 10.0 x 2.68 SW 3.36 SW 4.47 S No x No Precipitation 10/20/2013 10:25 AM 10/20/2013 10:25 AM x x x x x 0.04 Unknown
06/24/2022 09:48 AM 70.34 30.56 104.90 66.74 10.0 x 2.68 S 1.79 W 4.47 S No x No Precipitation 10/20/2013 10:25 AM 10/20/2013 10:25 AM x x x x x 0.04 Unknown
06/24/2022 09:49 AM 70.34 30.74 104.90 66.74 10.0 x 2.91 S 4.03 S 4.47 SW No x No Precipitation 10/20/2013 10:25 AM 10/20/2013 10:25 AM x x x x x 0.04 Unknown
06/24/2022 09:50 AM 70.52 30.74 104.90 66.74 10.0 x 3.13 S 2.46 SE 5.59 S No x No Precipitation 10/20/2013 10:25 AM 10/20/2013 10:25 AM x x x x x 0.03 Unknown
06/24/2022 09:51 AM 70.52 30.92 104.90 66.74 10.0 x 2.91 S 4.47 SW 5.59 S No x No Precipitation 10/20/2013 10:25 AM 10/20/2013 10:25 AM x x x x x 0.04 Unknown
06/24/2022 09:52 AM 70.52 30.74 104.90 66.74 10.0 x 3.36 SW 3.13 SW 5.59 S No x No Precipitation 10/20/2013 10:25 AM 10/20/2013 10:25 AM x x x x x 0.03 Unknown
06/24/2022 09:53 AM 70.52 30.74 104.90 66.74 10.0 x 4.03 SW 2.91 S 5.59 S No x No Precipitation 10/20/2013 10:25 AM 10/20/2013 10:25 AM x x x x x 0.03 Unknown
06/24/2022 09:54 AM 70.52 30.74 104.90 66.74 10.0 x 3.36 SW 2.46 S 5.59 S No x No Precipitation 10/20/2013 10:25 AM 10/20/2013 10:25 AM x x x x x 0.04 Unknown
06/24/2022 09:55 AM 70.52 30.74 104.90 66.74 10.0 x 2.68 SW 1.57 SW 5.59 S No x No Precipitation 10/20/2013 10:25 AM 10/20/2013 10:25 AM x x x x x 0.04 Unknown
06/24/2022 09:56 AM 70.52 30.92 104.90 66.74 10.0 x 2.24 S 3.36 S 5.59 S No x No Precipitation 10/20/2013 10:25 AM 10/20/2013 10:25 AM x x x x x 0.03 Unknown
06/24/2022 09:57 AM 70.52 30.74 104.90 66.74 10.0 x 2.24 S 2.24 S 5.59 S No x No Precipitation 10/20/2013 10:25 AM 10/20/2013 10:25 AM x x x x x 0.03 Unknown
06/24/2022 09:58 AM 70.34 30.74 104.90 66.74 10.0 x 2.68 SW 3.80 SW 5.59 S No x No Precipitation 10/20/2013 10:25 AM 10/20/2013 10:25 AM x x x x x 0.04 Unknown
06/24/2022 09:59 AM 70.34 30.74 104.90 66.74 10.0 x 3.13 SW 2.46 SW 5.59 S No x No Precipitation 10/20/2013 10:25 AM 10/20/2013 10:25 AM x x x x x 0.03 Unknown
06/24/2022 10:00 AM 70.34 30.74 104.90 66.74 10.0 x 2.91 SW 4.25 S 6.26 S No x No Precipitation 10/20/2013 10:25 AM 10/20/2013 10:25 AM x x x x x 0.04 Unknown
06/24/2022 10:01 AM 70.52 30.92 104.90 66.74 10.0 x 2.91 S 1.79 S 6.26 S No x No Precipitation 10/20/2013 10:25 AM 10/20/2013 10:25 AM x x x x x 0.04 Unknown
06/24/2022 10:02 AM 70.52 31.10 104.90 66.74 10.0 x 3.36 S 4.03 SW 6.26 S No x No Precipitation 10/20/2013 10:25 AM 10/20/2013 10:25 AM x x x x x 0.03 Unknown
06/24/2022 10:03 AM 70.52 30.92 104.90 66.74 10.0 x 3.58 S 3.80 S 6.26 S No x No Precipitation 10/20/2013 10:25 AM 10/20/2013 10:25 AM x x x x x 0.04 Unknown
06/24/2022 10:04 AM 70.70 30.92 104.90 66.74 10.0 x 3.58 S 2.01 SW 6.26 S No x No Precipitation 10/20/2013 10:25 AM 10/20/2013 10:25 AM x x x x x 0.03 Unknown
06/24/2022 10:05 AM 70.52 30.92 104.90 66.74 10.0 x 3.36 S 3.58 S 6.26 S No x No Precipitation 10/20/2013 10:25 AM 10/20/2013 10:25 AM x x x x x 0.03 Unknown
06/24/2022 10:06 AM 70.52 30.92 104.90 66.74 10.0 x 3.13 SE 3.36 SE 6.26 S No x No Precipitation 10/20/2013 10:25 AM 10/20/2013 10:25 AM x x x x x 0.04 Unknown
06/24/2022 10:07 AM 70.52 30.92 104.90 66.74 10.0 x 3.13 S 3.13 SW 6.26 S No x No Precipitation 10/20/2013 10:25 AM 10/20/2013 10:25 AM x x x x x 0.04 Unknown
06/24/2022 10:08 AM 70.52 30.92 104.90 66.74 10.0 x 3.36 SW 6.26 SW 6.26 SW No x No Precipitation 10/20/2013 10:25 AM 10/20/2013 10:25 AM x x x x x 0.04 Unknown
06/24/2022 10:09 AM 70.70 30.92 104.90 66.74 10.0 x 3.80 SW 2.68 SW 6.26 SW No x No Precipitation 10/20/2013 10:25 AM 10/20/2013 10:25 AM x x x x x 0.04 Unknown
06/24/2022 10:10 AM 70.70 31.28 104.90 66.74 10.0 x 3.80 SW 3.36 S 6.26 SW No x No Precipitation 10/20/2013 10:25 AM 10/20/2013 10:25 AM x x x x x 0.04 Unknown
06/24/2022 10:11 AM 70.70 31.28 104.90 66.74 10.0 x 2.46 SE 1.34 E 6.26 SW No x No Precipitation 10/20/2013 10:25 AM 10/20/2013 10:25 AM x x x x x 0.03 Unknown
06/24/2022 10:12 AM 70.88 31.28 104.90 66.74 10.0 x 2.01 SE 2.68 SE 6.26 SW No x No Precipitation 10/20/2013 10:25 AM 10/20/2013 10:25 AM x x x x x 0.04 Unknown
06/24/2022 10:13 AM 70.88 31.46 104.90 66.74 10.0 x 2.68 S 2.46 W 6.26 SW No x No Precipitation 10/20/2013 10:25 AM 10/20/2013 10:25 AM x x x x x 0.04 Unknown
06/24/2022 10:14 AM 70.88 31.64 104.90 66.74 10.0 x 3.13 W 4.47 W 6.26 SW No x No Precipitation 10/20/2013 10:25 AM 10/20/2013 10:25 AM x x x x x 0.04 Unknown
06/24/2022 10:15 AM 71.06 31.64 104.90 66.74 10.0 x 2.68 W 0.67 W 6.26 SW No x No Precipitation 10/20/2013 10:25 AM 10/20/2013 10:25 AM x x x x x 0.04 Unknown
06/24/2022 10:16 AM 71.06 31.64 104.90 66.74 10.0 x 1.79 SW 0.67 SW 6.26 SW No x No Precipitation 10/20/2013 10:25 AM 10/20/2013 10:25 AM x x x x x 0.04 Unknown
06/24/2022 10:17 AM 71.06 31.82 104.90 66.74 10.0 x 1.79 W 3.36 SW 6.26 SW No x No Precipitation 10/20/2013 10:25 AM 10/20/2013 10:25 AM x x x x x 0.04 Unknown
06/24/2022 10:18 AM 71.24 32.00 104.90 66.74 10.0 x 2.24 W 0.89 W 5.37 S No x No Precipitation 10/20/2013 10:25 AM 10/20/2013 10:25 AM x x x x x 0.03 Unknown
06/24/2022 10:19 AM 71.24 32.00 104.90 66.74 10.0 x 1.57 SW 3.13 S 5.37 S No x No Precipitation 10/20/2013 10:25 AM 10/20/2013 10:25 AM x x x x x 0.04 Unknown
06/24/2022 10:20 AM 71.42 32.18 104.90 66.74 10.0 x 2.01 S 3.80 S 4.70 S No x No Precipitation 10/20/2013 10:25 AM 10/20/2013 10:25 AM x x x x x 0.04 Unknown
06/24/2022 10:21 AM 71.42 32.36 104.90 66.74 10.0 x 3.80 S 4.92 S 6.04 S No x No Precipitation 10/20/2013 10:25 AM 10/20/2013 10:25 AM x x x x x 0.04 Unknown
06/24/2022 10:22 AM 71.42 32.18 104.90 66.74 10.0 x 4.47 S 2.24 S 6.49 S No x No Precipitation 10/20/2013 10:25 AM 10/20/2013 10:25 AM x x x x x 0.03 Unknown
06/24/2022 10:23 AM 71.24 32.00 104.90 66.74 10.0 x 3.80 S 4.25 S 6.49 S No x No Precipitation 10/20/2013 10:25 AM 10/20/2013 10:25 AM x x x x x 0.03 Unknown
06/24/2022 10:24 AM 71.24 32.00 104.90 66.74 10.0 x 3.13 S 2.01 SE 6.49 S No x No Precipitation 10/20/2013 10:25 AM 10/20/2013 10:25 AM x x x x x 0.04 Unknown
06/24/2022 10:25 AM 71.06 31.82 104.90 66.74 10.0 x 2.91 SE 3.36 SE 6.49 S No x No Precipitation 10/20/2013 10:25 AM 10/20/2013 10:25 AM x x x x x 0.04 Unknown
06/24/2022 10:26 AM 71.06 31.64 104.90 66.74 10.0 x 3.36 SE 4.03 SW 6.49 S No x No Precipitation 10/20/2013 10:25 AM 10/20/2013 10:25 AM x x x x x 0.03 Unknown
06/24/2022 10:27 AM 71.06 31.64 104.90 66.74 10.0 x 3.36 SW 0.45 W 6.49 S No x No Precipitation 10/20/2013 10:25 AM 10/20/2013 10:25 AM x x x x x 0.03 Unknown
06/24/2022 10:28 AM 71.06 31.82 104.90 66.74 10.0 x 2.68 SW 2.91 W 6.49 S No x No Precipitation 10/20/2013 10:25 AM 10/20/2013 10:25 AM x x x x x 0.03 Unknown
06/24/2022 10:29 AM 71.24 32.00 104.90 66.74 10.0 x 2.24 W 3.58 S 6.49 S No x No Precipitation 10/20/2013 10:25 AM 10/20/2013 10:25 AM x x x x x 0.03 Unknown
06/24/2022 10:30 AM 71.24 32.00 104.90 66.74 10.0 x 2.24 S 2.01 SW 6.49 S No x No Precipitation 10/20/2013 10:25 AM 10/20/2013 10:25 AM x x x x x 0.03